GFSFLT1_sfc_wetblb_063.txt.gz
Wetbulb
58.26 59.34 60.07 61.24 62.06 62.43 63.20 63.64 63.37 62.30 61.75 61.69 62.30 62.46 62.08 61.80 62.14 60.93 59.04 57.95 56.61 55.27 53.57 53.00 52.89 52.07 51.21 51.04 50.58 50.32 50.02 49.74
58.93 59.49 59.95 60.30 61.60 61.67 62.26 62.02 62.04 60.78 59.69 59.02 58.84 59.83 59.86 59.42 59.98 58.85 57.71 56.69 55.80 53.40 53.47 52.47 52.68 52.07 50.96 51.14 50.18 49.59 48.85 49.71
57.97 59.24 60.18 59.55 59.91 61.04 61.34 61.49 60.61 60.89 61.10 60.67 60.55 60.18 58.95 58.60 58.06 57.70 57.01 55.89 54.24 52.83 52.74 51.73 51.95 50.50 50.39 50.55 50.44 48.72 49.00 48.72
57.56 57.68 58.99 59.59 59.21 60.19 60.66 61.19 60.83 61.25 61.48 60.07 57.53 56.92 56.35 55.58 55.90 55.56 54.68 53.75 52.51 52.83 52.21 51.72 51.45 51.34 50.16 50.41 50.03 48.42 46.52 46.62
58.73 58.42 58.62 59.47 59.53 60.77 60.90 61.03 60.68 60.75 60.56 59.85 58.40 58.69 56.79 56.64 55.95 54.15 52.95 52.77 52.26 52.27 51.70 51.71 50.97 50.58 50.07 49.59 48.60 48.25 46.56 43.66
58.51 58.82 59.49 59.91 60.01 60.22 61.03 60.83 60.40 60.28 59.79 59.99 59.15 58.27 57.79 56.02 54.94 53.12 52.92 52.81 53.06 51.61 51.39 50.72 50.36 50.29 49.53 49.13 47.11 44.76 43.84 43.13
58.58 59.82 59.77 58.96 59.53 60.11 60.35 60.13 59.75 59.66 59.47 59.14 58.61 57.37 55.37 53.82 54.22 52.88 52.74 52.91 51.98 51.15 50.26 50.48 50.31 48.73 47.71 44.88 46.45 43.07 43.12 42.82
56.47 56.73 57.00 57.25 57.87 59.15 59.94 59.62 59.24 59.05 58.40 58.57 57.99 57.50 55.86 54.85 54.79 52.69 51.98 51.19 50.02 49.34 49.61 48.64 47.66 47.71 46.58 44.47 45.15 44.12 41.19 41.80
55.37 55.93 56.77 56.86 57.42 58.55 58.78 58.96 59.17 59.01 57.99 58.14 57.80 57.01 56.71 55.59 52.81 53.33 52.73 51.07 49.07 49.11 48.40 47.80 47.59 46.94 44.10 43.43 44.37 42.63 43.17 44.00
53.26 54.61 56.05 56.77 57.47 58.36 58.92 59.26 59.16 59.51 58.71 58.55 58.31 58.28 57.07 54.68 53.40 54.82 53.26 51.25 48.60 47.77 47.68 47.78 46.04 45.68 43.64 42.72 42.52 41.46 44.07 44.17
50.97 53.06 55.30 57.00 58.16 59.03 59.60 59.92 59.59 59.53 59.53 59.22 58.93 58.36 57.09 55.07 53.54 52.94 51.27 48.62 47.96 47.45 46.51 44.39 45.21 43.92 43.20 43.47 41.57 43.46 43.05 43.16
52.66 54.18 56.39 57.65 58.75 59.07 59.46 59.76 59.85 59.54 59.81 59.07 58.27 58.53 56.19 53.76 52.02 51.08 49.04 48.22 46.34 44.46 45.64 45.29 43.13 42.62 42.28 41.03 42.58 43.18 42.01 42.21
54.84 55.62 57.13 57.85 58.55 59.14 59.48 59.58 59.47 59.79 59.35 57.95 56.79 54.07 51.40 50.00 48.39 47.71 47.85 46.30 45.67 45.82 44.13 44.06 43.69 41.98 41.55 41.79 42.20 41.97 41.65 41.21
54.75 55.83 56.63 57.66 58.47 58.93 58.51 57.67 57.77 56.38 53.88 51.91 50.15 48.95 48.27 47.74 47.05 47.35 47.87 45.50 44.96 43.82 43.71 42.51 42.22 42.97 42.04 42.37 42.15 42.09 41.61 40.75
54.75 55.14 56.07 56.64 57.18 57.05 57.06 55.06 53.35 50.70 50.07 49.87 49.12 48.29 47.70 46.96 46.40 45.50 45.51 45.71 42.90 42.42 43.40 43.21 41.96 42.23 42.55 42.16 41.63 41.61 40.96 40.59
52.07 53.06 54.61 55.13 53.87 52.15 51.46 51.40 51.02 50.51 49.38 48.38 47.78 47.78 47.62 45.71 44.62 43.98 44.97 43.76 43.64 43.69 42.05 41.76 42.32 42.06 41.36 42.10 41.64 40.94 40.41 39.97
50.20 50.74 52.14 51.65 50.41 49.79 49.04 49.43 49.81 50.34 49.20 46.94 46.36 45.54 44.80 43.06 43.68 42.60 42.00 41.71 40.63 41.07 40.38 39.66 39.37 41.31 37.75 36.59 37.90 40.54 39.55 38.77
46.91 47.62 48.67 48.91 48.72 48.74 47.97 47.59 48.21 47.66 46.83 45.58 44.25 42.92 41.52 41.07 40.04 40.72 41.16 42.34 42.00 41.28 41.37 42.67 41.37 41.41 36.66 36.55 36.21 39.61 39.20 39.01
43.57 43.93 43.99 44.57 45.26 45.38 45.63 45.57 44.99 43.43 41.52 40.40 40.11 40.34 41.25 41.98 42.25 42.36 42.15 42.01 42.03 41.83 40.46 39.76 39.30 38.84 35.61 35.69 35.59 39.44 39.67 39.02

GFSFLT1_sfc_wetblb_066.txt.gz
Wetbulb
60.66 62.25 62.34 61.86 62.60 63.63 64.02 64.63 65.64 66.07 66.38 64.84 63.63 63.48 64.09 66.22 66.14 65.44 64.63 64.06 62.74 61.89 60.15 58.83 58.51 57.33 56.39 55.25 54.40 54.31 54.70 55.29
61.58 61.82 63.72 62.46 63.06 63.40 63.80 64.03 65.39 65.59 64.95 62.79 61.87 62.01 64.08 65.15 65.20 65.63 64.58 63.80 62.67 61.37 59.66 58.37 58.34 56.97 55.98 55.78 54.46 53.41 53.20 54.79
59.83 61.14 62.46 63.12 63.33 63.89 64.11 64.68 65.85 65.91 64.88 63.49 62.53 62.78 63.64 65.00 64.55 64.43 63.84 62.44 61.60 60.16 59.18 57.99 57.70 56.36 55.55 54.85 54.35 53.01 53.62 53.42
60.49 60.35 61.59 62.52 62.49 63.44 64.09 65.29 65.61 65.80 65.06 63.65 63.31 64.46 64.34 63.38 62.45 62.55 62.65 60.49 60.98 58.91 57.68 58.37 57.17 56.24 54.83 54.99 54.76 53.53 51.63 51.18
61.30 61.35 61.33 62.43 62.53 63.45 64.68 65.37 65.46 65.46 65.19 63.56 62.16 61.56 61.20 62.79 62.72 62.85 59.59 59.63 58.22 56.89 57.57 57.62 56.72 56.30 55.55 54.82 54.39 53.55 51.51 48.13
60.95 61.56 62.20 62.91 63.39 63.77 63.80 64.48 65.14 65.61 65.58 64.93 63.42 62.60 63.56 64.13 62.80 61.69 59.86 58.07 56.89 56.21 56.83 56.92 56.30 55.94 55.70 54.58 53.38 51.21 48.56 49.24
62.06 62.52 62.97 63.13 64.75 64.58 64.50 63.84 64.07 65.14 65.29 65.05 64.46 63.85 63.39 61.50 60.89 59.44 56.56 56.53 54.66 55.56 56.14 56.31 56.27 55.61 54.58 53.38 52.08 49.63 47.97 46.99
61.92 62.13 62.77 62.78 63.57 64.18 64.42 64.15 63.34 64.71 64.58 64.32 64.22 64.21 63.76 61.49 60.38 58.69 57.13 55.37 54.98 55.66 55.97 55.56 55.18 54.85 53.82 50.72 50.23 46.41 46.19 45.24
61.14 62.59 63.22 63.48 63.08 63.66 63.79 63.58 63.32 63.73 62.86 63.81 63.65 62.30 61.53 60.87 60.11 59.08 55.83 53.95 56.36 57.10 55.85 55.30 54.63 53.07 51.28 46.36 49.23 48.51 44.55 44.42
59.35 61.52 62.87 63.34 63.44 63.12 63.76 63.61 63.74 64.10 62.56 63.36 61.94 61.51 59.46 59.26 60.17 58.13 54.55 55.01 56.31 55.68 54.81 54.01 52.69 50.28 46.35 46.75 45.46 44.26 43.93 46.01
57.11 58.65 60.99 61.97 63.08 63.74 64.08 64.04 63.25 63.77 63.69 62.04 62.16 61.41 61.57 60.57 59.65 57.04 54.87 56.45 56.79 54.57 53.70 51.41 45.60 46.28 46.12 45.45 44.22 43.63 44.25 45.97
57.42 57.78 58.72 60.15 61.88 62.55 62.85 63.03 62.97 63.03 63.47 62.94 61.43 60.59 60.31 60.15 58.52 56.39 55.38 55.03 54.57 52.61 50.24 46.21 46.10 44.23 43.97 43.50 42.00 42.75 43.64 45.66
58.97 59.13 59.56 60.00 60.39 61.40 61.80 62.35 62.43 62.93 63.36 62.46 59.66 59.37 58.60 54.88 53.20 51.79 52.06 49.79 48.49 46.00 46.31 44.61 44.52 42.78 42.34 41.79 42.97 44.87 45.20 44.39
59.22 59.78 60.00 60.67 61.30 61.56 61.85 62.35 62.31 62.41 60.85 58.35 53.70 52.03 51.04 49.61 48.73 47.99 46.93 46.05 45.54 46.01 45.61 43.59 42.51 42.64 43.25 44.38 45.57 45.53 45.30 44.88
58.43 59.74 60.54 61.08 61.51 61.66 60.59 58.42 57.69 55.75 54.39 51.84 50.03 49.36 48.81 48.04 47.61 47.46 46.11 46.94 45.07 43.99 44.12 43.55 44.17 44.42 44.34 45.75 45.39 45.00 45.11 44.71
55.73 58.72 60.07 60.73 60.53 60.12 59.97 56.39 52.98 52.32 50.78 50.14 49.47 49.08 48.44 47.13 46.71 45.40 45.68 44.29 44.25 44.28 44.21 43.53 44.39 43.89 43.85 43.67 45.31 45.01 44.39 43.98
54.70 56.73 58.28 57.46 56.91 56.77 55.97 54.95 52.47 51.94 49.91 48.29 47.92 47.17 47.25 47.34 44.64 43.95 44.57 43.72 42.55 42.04 41.23 41.42 41.77 42.91 40.74 38.56 39.47 43.83 43.77 42.93
53.71 54.90 55.36 54.99 54.72 55.09 53.96 53.23 52.97 50.98 48.77 48.01 47.69 47.99 45.54 43.96 42.57 40.95 41.27 41.69 42.29 42.05 43.52 44.07 44.30 45.64 39.20 38.01 36.87 41.69 42.22 42.54
50.98 52.01 52.28 52.90 53.36 52.81 52.54 52.29 51.25 50.07 48.68 47.85 47.19 45.00 42.86 42.56 42.77 42.52 43.27 44.34 43.97 45.89 44.91 43.58 43.29 42.74 36.88 36.25 35.44 40.95 41.56 41.81

GFSFLT1_sfc_wetblb_072.txt.gz
Wetbulb
58.98 58.31 58.05 57.27 57.22 57.29 56.73 56.79 57.55 58.17 58.55 60.62 60.75 61.20 60.93 61.47 62.65 63.12 63.88 64.08 63.96 62.78 61.13 60.13 59.36 57.97 56.48 55.26 54.43 53.66 51.77 51.46
59.27 59.22 59.35 58.25 57.93 57.36 56.73 57.14 57.89 59.83 60.02 59.32 59.43 59.12 59.82 60.32 61.71 63.34 63.93 63.90 64.08 61.79 61.94 60.62 58.48 57.13 55.85 56.32 54.10 51.93 50.18 50.82
58.68 58.09 58.23 57.83 57.49 57.22 57.16 58.12 61.38 62.11 61.99 61.52 60.55 59.92 60.11 60.58 62.39 63.50 64.08 63.90 63.83 62.89 61.86 59.36 58.17 57.32 57.40 54.76 53.10 50.85 51.34 51.85
57.76 58.15 57.10 57.75 57.72 58.24 59.55 61.13 62.34 62.70 62.85 62.28 60.89 60.31 60.01 59.56 62.57 62.94 63.34 63.90 63.53 62.34 61.69 59.70 58.40 58.29 56.05 54.64 53.60 52.00 49.90 49.94
58.42 58.43 58.51 57.66 57.71 59.88 61.28 62.13 62.98 63.39 63.24 61.56 59.67 58.36 57.24 58.94 61.88 62.89 62.74 63.02 63.01 62.62 61.64 60.41 59.29 58.31 56.55 54.89 55.19 52.48 51.90 48.53
58.12 58.80 59.86 59.76 60.66 61.27 62.22 62.69 62.67 62.24 63.09 62.65 60.83 59.33 59.11 59.80 61.03 61.95 61.75 62.03 62.17 61.88 60.37 59.30 58.97 58.31 57.14 55.40 53.82 53.72 52.33 47.69
59.43 59.97 60.38 61.09 61.62 62.33 63.16 63.11 62.77 63.06 63.52 62.52 62.46 59.94 60.42 60.14 61.56 60.97 61.04 60.95 60.39 60.16 59.49 58.59 57.82 57.50 55.66 55.01 54.40 53.81 48.67 47.11
59.13 59.58 59.21 59.90 60.95 61.96 62.93 62.96 62.11 63.17 63.78 62.98 63.03 62.95 61.12 60.79 61.52 60.80 60.51 59.28 58.36 58.67 57.85 57.16 57.40 56.46 55.35 54.72 53.89 50.91 47.07 44.93
58.96 59.39 60.80 60.56 60.88 62.10 62.33 62.50 62.12 62.95 63.55 63.69 64.02 63.52 63.17 62.31 62.45 61.63 60.82 59.65 58.10 57.26 57.02 56.54 56.28 55.30 54.61 53.63 49.59 48.37 46.61 46.56
59.18 60.49 60.25 61.23 61.48 62.04 62.60 62.56 62.47 62.79 63.48 63.82 64.00 64.17 63.86 63.04 62.79 62.36 60.74 60.06 58.93 57.73 56.53 55.48 53.83 53.00 50.84 48.60 47.14 44.98 45.15 44.68
58.46 59.59 61.49 61.33 62.02 62.87 63.24 63.34 63.29 63.23 63.41 63.65 64.02 64.29 64.28 63.91 62.95 60.61 59.51 59.61 57.59 56.33 54.18 53.16 49.68 48.36 47.25 45.95 44.93 44.62 43.85 43.76
58.16 59.31 60.57 62.61 62.62 61.52 63.45 63.99 63.80 63.62 63.78 63.83 63.74 63.75 62.01 60.74 59.81 59.70 58.59 57.84 55.78 53.57 49.62 47.55 46.08 45.16 44.54 44.07 43.57 43.38 42.60 42.98
58.23 58.92 59.58 60.28 62.71 63.41 62.77 63.54 63.83 63.88 63.53 63.68 63.36 62.34 60.50 59.14 58.08 56.00 54.66 53.43 50.69 48.67 47.08 45.30 44.94 44.88 44.80 43.24 42.46 42.78 41.99 41.90
57.34 58.87 58.77 59.15 60.46 61.00 63.03 63.92 63.76 64.16 61.91 60.84 59.27 56.98 53.78 51.53 49.67 49.45 49.28 48.88 46.91 46.57 46.27 45.41 44.21 43.56 43.11 43.06 43.01 43.25 43.50 43.63
55.97 57.77 59.05 59.91 60.68 61.09 61.66 61.59 60.48 59.45 58.20 55.74 53.07 51.30 50.37 49.10 48.40 48.67 47.91 47.35 46.28 45.35 45.16 44.41 43.83 43.36 43.24 43.37 44.02 43.88 43.72 44.29
54.66 55.88 59.00 60.26 60.87 59.44 58.42 57.64 56.44 55.41 52.97 50.92 49.21 49.08 47.82 47.68 48.18 47.86 46.91 46.24 46.16 44.96 43.99 43.72 43.94 44.13 44.52 44.10 43.98 44.05 42.88 43.35
55.35 56.34 59.82 60.48 58.93 56.02 54.18 52.84 52.25 51.84 49.66 48.47 48.47 47.32 47.48 46.67 46.28 45.49 45.23 44.94 44.15 43.61 43.14 43.44 43.32 43.91 41.14 39.79 39.36 40.85 41.28 40.24
55.93 57.17 60.22 59.44 56.06 54.46 52.03 50.71 50.51 49.11 48.07 47.73 47.77 47.26 46.23 46.01 45.47 44.98 44.13 43.35 43.43 42.63 42.67 43.20 43.23 42.96 40.49 39.33 37.10 37.96 37.40 37.16
56.72 58.81 58.77 56.61 54.96 53.32 51.65 50.12 49.19 48.75 48.19 47.98 47.49 46.07 44.68 44.01 43.29 42.34 42.02 42.09 42.30 43.32 44.15 44.31 43.83 39.19 36.77 36.09 34.70 36.11 35.81 36.42

GFSFLT1_sfc_wetblb_075.txt.gz
Wetbulb
55.66 55.88 55.42 55.33 55.04 55.56 54.41 53.77 53.75 54.21 54.43 54.22 54.53 55.91 56.77 56.47 58.04 59.05 60.21 60.57 61.28 60.14 58.34 56.91 56.77 55.59 54.88 53.83 52.45 51.59 49.44 48.52
55.61 55.16 55.22 55.08 54.90 55.08 54.17 53.27 53.75 55.04 54.49 54.41 55.39 56.31 57.34 57.91 58.79 60.15 61.21 62.58 62.25 60.34 59.03 57.32 57.13 55.82 54.45 53.14 52.82 50.12 48.59 48.48
54.89 54.53 54.35 54.27 54.47 54.84 54.54 54.27 54.60 55.50 55.65 56.24 56.76 57.15 57.94 58.07 58.61 60.93 61.69 61.72 61.83 60.42 59.71 58.50 57.02 55.63 54.00 53.32 51.07 48.77 48.26 48.34
54.52 54.55 53.83 54.43 54.30 54.03 54.24 54.64 55.58 56.27 57.62 58.47 58.29 56.27 56.34 55.61 56.22 59.06 60.94 62.03 61.89 61.40 60.04 58.31 56.74 55.86 54.77 52.62 50.50 48.89 47.00 48.03
54.95 55.05 54.30 54.16 54.47 55.12 54.83 55.49 56.14 57.39 59.68 59.36 58.11 56.28 55.05 56.61 57.82 59.98 60.87 61.69 62.03 62.01 60.76 59.29 56.65 56.33 54.69 53.41 52.99 50.99 49.22 48.09
53.87 54.48 54.89 54.04 54.81 54.71 55.29 55.93 56.99 60.51 60.65 60.27 58.91 56.14 56.30 55.83 59.22 60.39 60.88 61.25 61.44 61.48 61.65 59.46 56.97 56.31 55.67 54.23 52.35 51.39 52.12 49.60
55.93 55.65 55.86 54.46 55.44 56.14 56.84 57.31 58.95 60.90 60.73 60.55 59.18 55.96 55.91 55.32 56.96 59.47 60.04 60.39 61.13 60.75 60.24 58.89 57.54 57.01 56.40 55.48 54.14 53.05 50.46 48.83
55.69 55.81 55.70 55.41 55.36 55.77 56.60 58.08 58.94 60.53 60.97 61.13 59.07 57.62 56.69 56.18 57.53 59.57 59.22 58.21 57.83 58.55 57.57 56.47 55.62 55.62 55.80 55.12 53.78 51.78 47.13 46.79
55.91 56.54 56.90 56.90 56.90 57.39 58.24 59.04 59.16 60.09 60.38 60.39 59.81 58.94 58.48 58.40 58.52 59.67 59.63 59.18 58.98 57.23 56.11 55.24 55.06 55.26 54.57 53.53 50.46 48.15 47.49 46.30
55.68 57.18 57.63 57.82 58.51 57.94 58.56 60.21 60.18 60.46 59.53 60.62 59.57 60.24 59.32 58.57 57.93 59.50 59.31 58.27 57.50 56.79 56.01 54.80 53.63 53.33 51.11 49.23 47.65 46.95 46.25 45.41
56.20 57.35 57.77 58.00 58.88 59.68 59.84 60.51 60.77 60.86 60.63 60.79 61.23 60.61 60.70 60.31 59.87 58.81 58.13 58.52 57.25 55.82 55.18 53.30 51.10 49.30 48.53 47.11 45.79 45.28 44.60 44.25
52.20 53.35 57.67 58.97 58.89 58.89 59.87 60.10 60.45 60.52 60.86 60.29 60.87 61.39 61.37 60.94 59.22 58.09 57.21 56.25 55.46 54.14 51.70 50.80 48.15 46.48 46.03 45.16 44.66 44.63 43.85 43.34
52.57 53.16 54.07 57.56 57.87 59.21 59.77 60.35 61.11 61.01 61.13 60.07 60.73 60.64 59.53 58.65 58.70 58.09 56.45 54.15 53.03 50.92 50.44 47.78 45.84 45.43 45.52 44.86 43.95 43.93 43.24 42.41
52.27 53.30 53.72 54.11 56.50 58.71 60.01 60.94 60.03 58.19 60.98 60.37 58.51 56.29 55.07 55.05 53.74 52.92 52.12 50.70 50.22 49.31 46.82 45.84 45.40 44.31 43.53 43.79 43.88 43.34 42.99 43.04
52.37 52.62 53.36 54.44 57.06 57.81 57.32 56.53 56.89 55.89 54.61 53.86 53.16 52.62 51.39 49.98 49.22 50.27 49.49 48.58 46.90 46.05 45.84 45.00 44.27 44.21 44.17 44.03 43.70 43.60 43.70 44.14
49.68 52.45 53.01 56.47 55.61 54.45 53.32 52.48 51.81 51.80 50.84 49.67 48.43 49.15 48.70 48.14 47.69 47.09 46.66 46.14 45.82 45.09 44.52 43.97 43.88 43.41 43.58 43.58 43.92 43.78 43.06 42.71
51.76 53.67 57.11 56.25 54.49 52.36 51.22 50.15 50.25 50.05 49.09 48.36 48.14 47.92 46.73 46.17 45.97 45.94 46.25 44.92 44.29 43.96 43.28 42.95 43.00 44.08 41.17 41.01 41.32 39.03 38.99 37.37
52.65 56.99 56.81 54.64 52.40 51.05 49.52 49.65 49.21 48.40 47.70 47.67 47.51 46.64 46.25 45.94 45.55 44.75 43.73 42.94 43.11 42.72 42.81 42.88 42.64 42.43 39.44 39.58 37.48 36.77 35.06 34.11
54.95 54.98 53.39 51.76 50.21 49.13 48.97 48.85 48.68 47.78 47.22 46.91 46.81 45.68 44.88 44.60 44.09 43.27 42.74 42.90 42.25 41.43 40.89 41.18 39.95 37.10 36.31 35.75 34.78 33.75 32.55 31.90

GFSFLT1_sfc_wetblb_078.txt.gz
Wetbulb
54.69 55.60 55.68 55.70 55.86 55.46 55.07 55.53 55.22 54.83 55.10 55.11 54.51 55.42 55.73 55.28 55.38 56.79 58.00 59.10 59.61 58.67 57.71 56.35 55.77 54.44 53.38 52.25 51.51 50.69 48.61 47.08
54.09 54.66 55.09 54.76 55.36 54.46 53.34 53.47 54.07 54.50 54.14 53.03 53.23 53.14 53.74 54.30 54.43 56.75 58.13 58.72 59.42 58.36 57.20 55.52 55.46 54.35 53.87 52.58 51.09 50.08 48.24 47.35
53.63 53.60 53.51 53.28 53.96 53.44 52.48 52.26 52.75 53.33 53.45 53.23 52.84 53.18 55.14 54.92 55.21 56.44 58.20 59.39 59.80 58.73 57.50 56.19 55.75 54.31 53.12 52.29 51.45 48.56 48.15 47.59
52.95 53.25 52.69 53.06 53.12 53.46 52.92 52.37 52.50 53.68 53.64 53.37 54.59 54.69 54.94 54.55 54.99 55.54 58.21 59.70 60.75 60.05 58.82 57.99 56.29 55.37 53.63 51.96 50.70 49.11 47.86 47.95
53.47 52.85 52.41 52.71 53.15 53.93 53.92 53.80 52.89 53.82 54.86 54.25 54.23 54.33 53.11 55.15 55.65 56.64 59.08 59.91 60.35 60.59 59.88 58.97 56.67 56.32 54.18 52.97 51.49 49.71 49.75 48.65
53.18 53.26 53.26 53.61 54.00 53.74 53.45 53.74 53.87 54.34 55.28 55.32 55.31 54.90 56.01 55.58 55.00 55.90 58.80 59.76 60.30 60.76 60.43 59.35 57.13 55.56 55.08 53.99 52.93 51.93 51.86 50.34
54.24 54.51 54.18 53.66 54.32 54.10 53.20 53.18 53.94 54.74 55.09 56.28 57.10 56.34 56.21 54.80 54.42 55.90 57.61 59.18 60.06 60.52 60.54 59.14 58.64 56.53 55.44 54.33 52.95 52.79 51.98 49.56
53.73 53.83 53.44 53.36 53.20 53.43 53.65 53.43 53.63 55.07 56.57 57.64 58.36 58.23 57.17 55.67 54.91 56.33 57.18 58.32 59.09 59.73 60.14 59.41 58.35 57.02 55.54 55.30 53.84 53.56 51.10 49.36
52.97 54.05 54.04 52.59 53.04 53.17 53.27 53.58 53.89 55.67 56.05 58.96 59.59 59.35 58.39 57.12 56.12 57.36 58.20 58.89 59.44 59.87 60.04 59.78 56.47 55.22 54.66 54.30 51.08 48.59 48.23 48.43
54.26 54.01 54.21 54.39 52.46 53.14 53.78 54.64 55.49 56.48 57.35 59.00 59.63 59.52 58.47 57.66 56.85 56.80 59.26 59.29 59.16 58.94 58.73 56.97 55.05 53.60 51.98 49.94 48.76 47.82 48.72 47.26
54.78 55.52 55.26 55.02 55.16 54.84 55.11 55.36 55.95 57.16 58.39 59.11 59.60 59.54 59.20 58.49 57.16 57.18 58.10 58.72 57.76 56.99 56.37 55.33 53.85 52.42 50.43 49.31 48.11 47.32 46.23 45.89
54.32 55.28 56.68 56.89 56.97 56.59 56.23 56.44 56.95 58.22 59.18 59.18 59.63 59.12 59.09 58.63 57.15 57.39 56.61 56.85 56.89 56.49 55.45 54.07 52.04 51.08 49.19 47.44 46.83 45.88 44.84 44.58
54.32 55.70 56.13 56.90 57.18 57.59 57.82 57.64 58.16 59.43 60.03 59.81 59.39 59.75 58.60 58.42 57.82 57.52 57.59 56.13 56.59 56.03 53.27 52.79 50.90 48.70 46.83 45.93 44.78 45.03 44.33 43.90
49.53 50.44 52.72 55.91 56.84 56.96 57.72 58.46 58.81 59.70 59.24 58.34 57.10 56.83 58.01 58.95 58.69 57.07 57.85 56.73 53.69 52.15 51.31 49.54 47.24 45.88 45.45 44.88 45.06 44.72 44.49 44.10
49.96 49.85 51.73 53.75 55.92 56.96 56.90 57.66 58.91 57.88 55.75 55.20 53.82 54.16 54.14 54.12 54.40 53.50 53.28 52.64 50.13 48.54 48.34 46.71 45.84 44.99 45.09 44.89 44.73 43.82 43.44 43.48
49.64 50.31 51.83 54.59 53.78 53.80 53.83 53.40 52.78 53.11 52.20 51.51 49.92 50.12 50.06 50.21 49.81 49.32 49.09 48.04 47.39 47.08 46.34 45.05 44.87 44.76 44.58 44.01 43.91 43.53 43.34 43.02
49.78 50.24 55.37 54.53 53.00 51.29 51.79 51.62 51.28 51.01 49.88 48.33 48.49 48.29 48.15 47.66 47.12 47.06 46.00 45.91 44.92 44.57 43.94 43.70 43.05 43.56 40.72 40.86 42.59 42.24 40.60 37.81
51.94 53.41 55.20 53.64 51.76 51.21 50.45 49.95 50.24 49.64 49.10 49.12 48.96 48.04 46.58 45.96 46.23 45.77 44.90 44.48 44.05 43.35 43.40 43.78 43.21 43.28 40.08 39.68 37.64 37.12 33.38 32.25
54.26 53.95 51.05 49.88 50.26 50.29 49.66 49.48 48.89 48.30 48.34 48.13 47.44 47.01 45.48 45.25 44.71 43.81 43.36 43.59 43.21 42.90 42.70 42.59 41.11 38.43 37.86 36.52 34.80 32.19 30.44 30.03

GFSFLT1_sfc_wetblb_081.txt.gz
Wetbulb
55.39 55.78 56.04 55.94 56.15 56.40 56.48 56.03 55.21 55.47 55.51 54.82 54.70 54.81 55.21 56.90 57.68 59.07 59.22 58.67 58.36 56.95 55.55 54.96 54.74 53.66 52.75 51.74 50.43 49.16 47.69 45.95
54.85 55.56 55.47 55.29 55.13 54.78 55.16 54.60 54.51 54.84 54.24 53.65 54.38 55.64 54.04 54.63 55.61 57.83 58.97 58.68 58.45 57.60 56.53 55.29 54.98 54.29 53.43 52.04 50.00 49.17 47.14 45.81
53.92 53.45 54.54 54.56 54.60 54.00 53.99 54.18 54.19 54.37 54.46 54.23 55.49 55.34 55.21 54.99 54.77 56.25 56.32 57.25 58.12 57.76 56.71 55.45 54.86 53.41 52.15 51.13 50.55 48.58 48.49 46.59
51.69 52.46 52.48 53.27 53.10 52.97 52.73 53.84 53.88 54.41 54.71 53.33 54.22 54.07 54.68 54.08 53.62 52.96 55.37 57.13 58.09 58.31 57.02 55.71 54.90 53.90 52.65 51.70 50.62 49.25 47.54 46.36
51.89 51.63 51.24 51.94 52.77 53.89 52.21 52.27 53.50 54.24 54.14 51.68 51.27 52.03 51.35 50.25 50.83 52.71 54.09 57.14 58.06 58.72 58.07 56.56 55.43 54.86 53.00 52.23 52.54 50.06 50.66 47.21
51.89 52.19 52.24 52.73 53.37 53.04 52.65 52.42 52.08 53.03 53.10 52.59 51.92 51.08 50.76 51.14 52.81 53.18 53.53 55.25 57.36 58.40 58.56 57.58 56.41 55.65 55.10 53.34 51.72 51.00 50.77 50.25
52.73 52.87 52.68 52.05 52.63 52.83 52.63 52.19 52.21 52.37 52.92 52.92 52.42 52.27 52.50 53.08 52.77 53.53 54.20 54.80 56.82 57.80 58.79 58.74 58.33 57.16 55.71 54.36 54.52 51.89 50.55 50.82
52.46 52.19 51.78 52.16 51.74 52.34 52.56 52.20 52.02 52.60 52.67 53.26 53.17 53.19 53.70 53.99 54.32 53.99 54.44 55.24 56.82 58.19 58.24 58.37 58.63 58.45 56.67 54.83 54.61 53.21 51.36 50.61
52.96 53.06 52.58 52.41 52.68 52.36 52.67 52.29 51.94 52.63 52.80 53.10 53.70 54.74 55.53 55.65 55.43 55.47 55.34 55.88 56.71 57.42 58.96 59.56 59.00 58.14 56.61 55.87 53.77 50.93 49.54 49.45
53.26 53.99 53.89 52.85 52.70 52.66 52.59 52.53 52.38 52.75 53.22 53.51 54.01 54.81 55.74 56.68 57.06 56.34 55.69 56.23 56.96 57.22 58.81 59.07 56.97 55.87 55.12 53.68 52.22 50.70 49.54 49.25
53.13 53.43 54.45 54.25 53.46 53.71 53.22 53.14 52.60 52.97 53.40 54.11 54.51 56.57 58.08 58.39 58.17 56.75 55.21 56.84 57.71 56.67 55.69 54.78 54.58 54.30 53.09 52.45 50.69 49.62 48.73 47.92
53.35 53.71 53.97 54.97 54.67 52.89 53.12 53.25 53.12 53.58 54.34 55.17 55.99 56.82 58.42 58.97 58.49 57.32 55.85 57.19 57.05 56.55 55.80 54.58 54.04 52.95 51.68 50.76 49.51 48.52 47.31 45.86
53.43 54.41 54.68 54.02 54.24 54.09 52.60 53.28 54.09 55.01 56.30 56.57 56.66 57.76 58.18 58.03 58.13 56.10 57.31 57.18 56.75 57.17 55.99 55.00 53.09 51.75 50.13 48.84 47.45 46.80 46.12 45.01
52.57 53.27 53.75 54.84 54.92 54.59 54.82 54.59 54.53 55.53 56.32 56.47 57.46 57.53 58.10 57.37 57.58 56.92 57.02 57.10 57.05 57.15 56.31 53.59 51.19 49.40 48.32 47.78 47.20 46.39 45.73 45.36
49.70 51.98 53.32 54.18 55.45 55.88 55.62 55.63 56.01 56.28 56.49 56.72 57.15 56.91 57.19 57.54 56.89 57.46 57.17 57.36 57.12 55.75 54.40 52.44 50.14 48.01 48.08 46.73 45.86 45.09 44.59 44.58
48.17 48.85 49.66 50.55 51.78 53.08 55.38 56.06 56.43 56.68 56.23 54.82 54.97 53.34 52.81 53.05 52.83 52.30 51.74 52.19 51.67 51.93 49.26 47.31 46.44 46.61 46.18 46.13 45.08 44.60 43.83 43.10
48.31 49.62 50.05 53.00 52.77 52.26 51.43 51.11 51.54 51.29 53.06 50.36 49.84 49.86 50.04 49.91 49.33 48.97 49.10 47.85 48.01 47.43 46.02 45.05 44.20 45.15 42.35 41.34 42.99 43.27 43.01 40.92
47.20 49.54 51.53 53.00 50.75 51.75 51.98 51.19 51.39 50.51 49.17 49.35 49.02 49.04 48.34 47.83 47.45 46.37 45.34 44.79 44.94 44.05 43.77 43.81 43.70 43.26 39.98 39.84 38.29 37.70 35.68 34.22
48.27 50.57 50.27 50.63 51.20 50.09 49.97 50.07 49.85 49.71 48.99 48.97 48.63 48.14 46.87 46.35 45.61 44.56 43.89 44.06 43.78 43.72 43.82 44.03 43.47 41.76 38.16 36.34 34.79 33.51 31.64 30.35

GFSFLT1_sfc_wetblb_084.txt.gz
Wetbulb
55.51 56.07 56.20 56.19 56.71 57.17 56.31 55.85 55.89 55.99 55.42 55.85 57.13 56.87 57.24 59.36 58.14 57.87 57.52 57.24 56.31 55.35 54.49 54.37 53.85 53.36 52.13 50.83 49.82 49.14 47.55 46.47
55.46 55.45 55.93 55.44 55.74 56.15 55.36 54.88 55.17 55.64 55.18 55.26 55.88 56.08 55.69 56.86 57.48 57.84 57.72 57.65 57.00 55.61 54.98 54.92 54.45 52.76 52.51 51.21 50.11 49.03 47.51 45.99
52.99 54.33 54.28 54.59 54.35 55.22 55.04 54.74 54.86 55.93 55.81 55.81 56.78 56.16 54.68 55.23 56.05 57.61 58.24 57.93 57.52 56.93 56.18 54.71 54.27 53.34 52.20 51.41 50.52 49.09 48.77 46.22
51.24 52.23 53.32 54.29 53.79 53.84 54.39 54.21 54.56 55.39 56.03 54.13 53.44 53.96 54.56 54.33 54.33 54.71 56.42 57.71 58.27 58.19 56.85 55.87 54.58 54.14 52.98 51.97 50.38 49.43 48.05 46.36
50.83 52.35 52.22 52.87 53.43 53.77 54.27 54.24 54.02 54.73 55.22 54.02 52.34 54.10 53.59 54.49 53.01 54.26 54.93 56.84 57.22 57.50 57.20 56.09 54.72 54.63 52.71 52.79 52.04 49.87 49.27 47.01
50.00 51.34 51.61 53.13 53.53 53.57 52.99 53.53 53.18 53.55 54.10 53.81 51.30 53.49 54.35 49.65 50.88 51.17 52.07 54.35 56.05 57.28 57.01 55.89 54.94 54.52 54.23 52.57 51.30 49.62 49.72 48.98
51.10 51.73 52.66 52.82 53.23 53.34 53.07 51.72 52.08 53.14 53.16 52.12 50.90 50.19 50.00 50.06 50.16 50.91 51.68 52.53 54.26 55.56 56.93 56.99 56.79 55.84 54.80 53.83 52.97 51.86 51.92 51.37
50.99 51.07 51.79 52.18 51.79 51.85 52.43 52.01 51.39 52.15 52.37 52.37 51.81 51.49 51.04 51.34 51.80 51.62 51.18 51.44 52.47 54.72 56.25 56.65 56.93 57.05 56.89 56.11 54.24 53.15 51.70 51.00
51.44 51.68 51.74 51.64 51.57 51.58 51.66 51.92 51.82 52.08 51.79 52.06 52.54 52.28 52.33 52.58 52.62 53.23 52.55 52.95 53.34 54.65 56.39 58.09 58.15 58.43 58.09 56.15 55.60 54.95 54.23 52.67
51.97 52.60 52.31 52.02 51.94 51.85 51.88 52.09 52.06 52.10 51.73 51.95 51.83 52.27 52.35 52.40 53.22 53.07 53.45 53.44 54.39 54.23 55.24 56.87 56.77 55.93 55.67 55.75 55.69 53.88 52.72 52.97
52.03 52.77 52.87 52.62 52.68 52.70 52.56 52.52 51.95 51.97 51.95 51.97 52.17 52.39 52.93 53.55 54.06 54.75 54.94 54.17 54.11 55.28 56.05 56.67 55.85 55.27 55.49 54.68 53.64 52.72 51.47 50.62
51.56 53.09 53.95 53.79 53.15 52.74 52.73 52.45 52.08 51.62 51.96 52.25 52.32 52.40 53.33 53.72 54.23 55.15 55.95 55.54 55.53 56.53 56.73 56.39 55.65 55.17 54.30 53.74 53.22 51.72 50.87 50.11
51.33 51.84 52.29 53.50 53.19 52.51 52.36 52.50 52.39 52.45 52.59 52.63 52.99 53.57 53.55 54.45 55.83 56.97 57.10 56.17 56.07 57.06 57.01 56.67 56.19 55.65 53.81 52.26 50.83 50.29 49.75 47.40
50.02 50.80 51.55 52.15 53.39 53.36 52.55 52.50 52.51 53.11 53.80 53.30 53.42 53.81 54.37 54.87 55.78 56.95 57.39 56.09 56.50 56.71 57.03 56.63 56.81 54.15 51.19 50.65 50.03 48.46 48.55 48.80
49.09 49.58 51.12 52.55 52.92 53.19 53.42 52.47 52.56 52.79 53.17 53.19 53.00 53.96 54.42 55.47 56.32 55.76 55.36 56.01 56.13 56.23 56.99 57.23 55.57 52.44 51.19 49.24 48.39 47.42 46.95 46.27
47.91 50.20 50.26 51.18 51.37 52.83 53.31 53.57 53.22 52.78 52.61 52.79 52.87 53.07 53.50 53.85 53.25 53.07 54.45 55.81 56.05 56.49 54.08 51.54 50.94 49.78 49.03 48.48 47.04 46.07 45.87 44.68
47.41 48.74 49.86 49.49 50.57 51.40 51.56 51.39 51.12 52.83 52.99 52.53 51.41 51.89 52.07 51.91 51.00 50.82 50.30 50.30 49.35 49.17 48.10 46.91 46.04 46.96 43.16 41.90 44.38 44.83 44.19 41.75
46.16 48.32 49.20 49.27 49.81 49.98 49.85 51.01 51.63 51.29 50.55 50.58 50.02 50.02 49.14 48.79 48.77 48.61 47.38 46.48 45.90 44.99 44.79 45.45 44.18 43.39 40.14 40.58 40.30 41.83 38.21 35.81
45.64 46.71 48.88 49.47 49.12 49.73 50.79 51.43 50.49 49.73 49.17 48.83 48.90 48.74 47.69 46.98 46.60 46.08 44.27 44.41 44.38 43.77 43.84 44.03 43.17 40.17 37.36 36.83 34.98 34.09 32.09 31.74

GFSFLT1_sfc_wetblb_087.txt.gz
Wetbulb
56.21 56.76 57.09 57.30 57.71 57.39 57.33 57.58 57.40 57.23 57.69 58.63 58.97 59.15 59.71 59.64 59.12 59.61 59.73 59.20 58.94 58.68 58.18 57.10 57.31 56.82 55.88 54.92 54.04 54.07 52.89 52.31
56.22 56.58 56.54 56.88 57.44 56.74 55.91 56.13 56.69 56.77 57.75 57.31 57.07 56.63 58.25 58.04 58.65 58.64 59.30 59.53 58.87 59.21 58.04 57.38 57.62 56.96 56.83 56.43 54.77 54.14 52.82 52.48
54.66 55.20 56.04 55.88 56.13 56.11 55.85 55.63 55.95 56.59 57.69 57.50 57.23 56.64 57.37 57.85 58.30 58.38 58.26 58.27 58.60 59.20 58.86 58.03 57.45 57.13 57.53 56.65 56.42 55.09 55.41 53.09
53.25 53.10 54.85 55.32 55.33 55.61 55.66 55.62 56.19 56.54 56.82 56.38 55.61 55.66 55.93 56.16 56.89 57.25 58.31 58.97 59.61 59.06 59.10 58.77 58.78 58.39 57.24 57.86 57.55 56.83 55.56 53.70
53.63 52.62 53.18 54.85 55.44 56.11 56.03 55.79 55.87 56.73 56.83 56.36 55.29 54.70 55.18 56.31 56.33 57.26 57.81 58.97 59.74 59.65 59.68 59.69 59.60 59.11 59.01 58.98 58.16 57.78 57.25 54.64
53.08 53.79 54.13 53.96 55.42 55.32 56.52 55.35 55.39 56.34 56.90 57.16 56.49 56.29 57.34 56.78 56.57 56.86 57.77 59.91 60.66 60.36 60.73 60.95 60.54 60.42 60.09 59.60 58.16 57.32 57.11 57.63
54.00 55.28 55.08 54.70 54.80 55.11 54.89 55.12 55.49 55.75 56.74 57.39 55.78 57.55 57.15 54.75 56.75 56.17 56.55 57.68 58.85 59.96 60.82 61.15 61.15 60.38 60.05 59.72 59.41 58.87 58.25 57.36
53.80 53.59 53.89 54.49 53.98 54.09 54.25 54.17 55.31 55.82 55.57 56.94 56.21 56.23 56.25 55.93 55.55 56.11 55.69 56.02 56.65 57.73 59.30 59.86 60.18 60.55 60.44 60.61 60.16 59.34 58.66 57.97
54.65 54.31 54.79 54.43 54.33 53.51 53.45 53.67 54.07 55.63 55.80 55.96 56.42 56.72 56.30 55.90 56.52 56.96 55.81 55.99 56.82 57.96 58.57 59.16 59.91 60.40 60.50 60.59 60.87 60.62 59.82 58.92
54.49 55.29 55.23 55.12 54.59 53.88 53.22 52.92 53.40 55.45 55.48 55.78 56.08 56.50 56.14 56.24 56.74 57.03 57.46 57.85 57.77 58.22 58.86 59.20 59.96 60.48 60.61 60.91 60.87 60.02 59.44 59.00
54.79 55.41 55.29 55.81 55.58 55.00 53.84 53.71 53.96 55.93 56.14 56.27 56.15 56.10 56.69 57.04 57.49 57.18 57.81 58.31 58.51 58.82 58.86 59.06 59.69 60.31 60.81 60.45 59.63 59.21 57.78 56.41
54.76 55.87 56.44 56.35 56.31 55.74 55.29 55.30 55.49 55.43 55.79 56.14 56.35 56.36 56.69 57.18 57.30 57.68 58.25 58.80 58.89 58.50 58.62 58.75 58.91 58.20 56.39 55.75 56.65 57.25 54.90 54.56
55.04 55.91 56.44 56.24 55.68 55.54 55.37 55.52 55.48 55.79 55.87 55.73 55.53 56.29 56.67 56.52 56.21 57.22 58.26 58.28 59.17 58.62 58.97 58.08 57.98 57.18 57.08 56.05 56.01 55.15 54.20 53.82
53.91 54.84 55.48 55.99 56.02 55.85 55.61 55.66 55.85 56.10 55.76 55.43 55.59 55.54 55.44 55.69 55.20 55.93 56.88 56.79 58.13 58.55 58.21 58.41 57.14 57.12 56.49 56.79 55.81 54.67 53.30 52.96
53.84 54.21 55.07 56.20 56.44 56.43 55.95 56.06 56.22 56.11 55.80 55.44 55.41 55.74 55.97 56.02 55.39 56.38 57.87 59.00 58.87 59.28 59.54 59.33 58.42 57.52 57.08 55.89 53.38 52.88 51.76 50.66
51.06 53.58 54.83 55.64 55.54 56.20 56.53 56.35 56.05 56.23 55.62 55.52 55.50 56.58 56.77 56.79 57.43 58.06 58.70 59.00 59.08 59.69 59.03 58.89 57.36 56.13 53.76 52.53 51.27 49.84 49.75 47.60
49.93 51.95 53.84 54.28 55.17 55.55 55.39 55.85 55.35 55.66 55.14 55.12 55.82 55.93 55.85 56.74 57.61 57.87 58.11 57.94 57.49 57.40 56.59 55.55 52.59 51.00 44.00 42.73 46.95 47.70 46.76 41.89
50.47 50.04 51.91 53.66 54.68 54.64 54.72 54.83 55.46 54.87 54.81 54.79 53.78 53.80 54.11 54.09 53.72 53.22 53.30 52.97 50.17 49.23 47.97 47.23 46.09 44.88 40.12 40.88 40.65 43.08 39.44 37.01
50.66 50.37 50.74 51.92 52.97 53.63 53.56 53.59 53.44 53.16 52.45 52.03 52.22 51.70 51.00 50.41 49.99 49.05 46.61 46.34 45.78 45.22 44.77 44.27 41.15 38.23 37.10 36.87 36.25 35.78 34.37 33.18

GFSFLT1_sfc_wetblb_093.txt.gz
Wetbulb
62.48 62.00 61.42 61.08 60.67 60.01 59.37 59.81 60.66 60.44 60.12 60.13 60.13 61.50 61.57 61.12 60.45 59.77 59.54 59.99 61.20 63.00 61.17 60.47 60.64 59.16 59.63 59.85 59.65 61.17 59.40 58.91
62.16 61.84 61.14 60.01 59.99 59.61 60.14 58.52 59.28 59.54 59.51 58.16 57.74 57.63 59.11 58.83 59.02 59.09 58.83 58.98 59.66 61.11 60.25 59.43 59.32 59.10 58.29 59.04 59.24 59.20 58.95 58.78
60.69 61.15 60.17 58.82 58.62 58.68 59.50 59.82 59.47 59.80 59.62 60.09 58.46 57.75 58.48 58.45 58.84 58.75 58.91 59.03 59.36 59.34 59.21 59.16 59.29 59.29 58.92 59.57 59.49 58.18 58.15 57.91
60.10 60.14 59.77 58.51 58.45 58.78 59.22 59.43 59.67 60.02 59.58 59.84 59.71 59.15 58.27 57.45 57.86 57.84 58.13 59.27 59.89 59.99 60.25 60.02 59.79 59.40 60.13 61.18 60.54 59.54 57.39 57.40
60.59 60.19 59.95 58.92 59.71 60.02 59.11 59.51 59.04 59.95 61.43 59.84 57.82 57.15 56.08 57.55 57.38 58.40 59.00 59.81 59.73 59.62 60.78 60.54 60.75 61.93 61.60 59.28 60.43 60.30 61.39 58.64
60.17 60.44 60.19 60.68 59.31 60.43 60.37 58.90 58.54 59.80 59.78 60.15 59.15 57.47 56.51 57.48 57.57 57.81 59.05 57.40 58.19 58.93 61.05 62.21 61.03 61.62 62.02 61.41 61.86 62.23 62.00 60.69
61.00 61.32 60.58 60.83 60.11 59.37 60.78 59.03 58.49 58.98 59.83 59.75 59.21 57.00 56.52 56.75 56.31 55.92 57.17 57.54 56.84 58.41 61.35 61.95 63.02 62.37 62.02 62.68 62.90 62.54 61.75 61.77
60.65 60.44 59.49 59.83 59.62 58.54 59.34 58.86 57.83 58.42 59.28 59.55 59.54 58.69 58.58 57.37 56.75 55.76 55.95 56.37 57.10 58.05 59.50 60.47 61.88 62.68 62.67 62.68 62.57 62.91 62.80 61.95
60.77 60.78 60.45 59.80 59.67 59.63 59.85 58.41 57.90 58.85 58.27 59.03 59.67 58.80 57.28 57.22 59.18 58.67 56.86 56.54 56.41 57.49 58.12 58.60 61.66 62.58 62.66 63.13 63.09 63.90 63.60 62.68
60.62 61.29 61.60 60.52 60.09 59.98 60.39 59.80 59.72 59.07 59.37 59.45 58.94 58.70 58.19 57.99 59.40 61.28 60.26 59.26 58.66 59.29 59.32 60.53 61.47 62.86 62.82 63.39 63.05 62.82 62.78 62.70
60.57 61.39 61.90 61.78 60.95 60.64 60.65 60.45 60.13 60.02 60.49 60.33 60.18 59.58 60.51 60.64 60.08 60.15 61.62 61.20 61.53 61.87 61.99 62.44 62.58 62.77 63.03 63.16 62.12 62.70 62.02 62.25
60.39 61.46 62.31 62.71 62.05 61.05 60.57 60.37 60.23 60.66 60.49 60.59 60.53 60.12 60.60 60.92 60.97 62.29 61.52 61.57 61.30 61.19 62.08 61.76 61.94 62.08 62.78 62.33 62.38 62.44 61.74 61.91
60.47 61.34 62.14 62.15 62.13 61.31 60.55 60.52 60.32 60.65 61.33 61.16 60.59 61.39 61.63 61.54 62.02 61.32 62.80 62.49 63.02 62.38 62.15 61.74 61.50 61.99 62.36 61.76 61.04 61.31 61.15 60.80
60.41 60.84 61.33 61.93 62.20 61.80 61.19 60.60 60.22 60.73 60.93 61.16 62.10 62.34 62.20 62.14 62.18 62.21 62.59 61.39 61.14 61.33 61.64 61.58 61.50 61.77 61.56 62.09 61.97 61.59 61.37 60.52
58.63 59.96 60.93 61.82 62.12 62.26 61.78 61.15 60.82 60.61 60.45 60.68 61.16 61.34 61.70 61.96 62.60 62.76 62.72 62.93 61.99 61.45 62.39 62.22 62.23 61.66 61.46 61.63 61.35 61.50 60.83 59.45
56.12 58.76 60.26 61.53 61.95 62.49 62.66 62.39 61.81 61.21 60.31 60.40 61.09 61.61 61.89 61.58 62.03 62.35 62.08 62.12 61.67 61.26 61.32 61.27 61.06 60.67 59.99 60.83 60.67 58.84 59.48 57.96
56.12 57.18 59.31 60.49 61.50 62.25 62.42 62.68 63.12 62.89 61.31 60.84 60.97 61.25 60.65 60.99 61.51 61.44 61.36 60.76 60.59 60.23 59.83 59.59 59.11 49.87 40.04 42.48 47.72 51.39 46.15 42.74
55.51 56.22 57.46 59.07 61.03 62.31 62.50 62.76 63.37 62.28 61.56 61.08 60.69 60.48 59.85 60.77 60.05 59.78 59.63 59.72 59.35 52.89 48.57 46.02 42.29 40.92 38.56 38.81 38.99 39.06 37.17 35.70
55.94 56.75 57.40 58.39 59.65 62.04 62.91 63.22 62.63 62.01 61.40 61.13 60.82 60.52 59.85 59.96 59.87 58.90 53.85 51.20 46.95 42.94 40.35 38.38 36.37 35.52 36.06 36.06 35.11 34.22 32.87 32.44

GFSFLT1_sfc_wetblb_096.txt.gz
Wetbulb
62.51 62.24 61.80 61.16 60.42 60.13 60.15 59.38 60.62 60.71 60.75 60.76 61.88 62.32 62.44 62.86 61.49 61.96 61.76 60.96 61.32 61.48 60.72 61.04 61.18 60.53 59.10 58.35 56.93 57.07 55.87 55.73
62.14 62.07 61.21 60.12 59.10 59.37 59.26 59.27 59.54 59.52 58.45 57.91 59.44 59.66 61.04 60.94 61.51 61.47 61.02 60.00 59.35 59.07 58.35 58.63 57.98 57.23 56.98 57.93 56.51 54.86 54.68 54.80
60.26 60.39 59.92 59.21 58.52 59.02 59.07 58.58 59.21 59.39 58.92 58.54 58.49 58.96 59.19 58.92 58.92 58.87 59.16 58.32 58.76 57.93 57.10 57.10 57.52 57.21 56.59 56.71 55.79 55.06 54.46 54.68
59.46 59.60 59.19 58.94 57.67 58.12 58.92 59.42 59.52 59.08 59.34 58.41 57.92 58.04 57.89 57.25 57.03 57.10 57.77 58.04 58.20 58.12 57.89 57.15 57.85 57.42 56.90 57.40 56.84 55.72 53.98 54.65
59.75 59.64 58.43 58.21 57.59 58.76 58.95 59.71 59.85 58.93 59.63 58.28 57.07 55.99 54.98 55.92 56.30 56.58 57.36 57.52 58.14 58.54 59.10 58.89 58.17 58.53 57.98 57.85 58.35 57.09 56.77 53.72
59.40 59.33 59.40 58.89 59.18 59.44 58.90 59.35 59.57 59.46 59.20 58.93 57.53 56.43 56.33 55.79 55.03 55.01 56.50 57.24 57.51 58.29 59.00 58.91 58.74 58.64 58.62 58.69 58.08 57.60 57.78 57.76
60.06 60.40 60.14 59.16 59.45 58.76 59.31 58.44 58.72 59.48 59.81 58.68 57.90 56.73 55.83 54.96 54.48 53.83 54.91 56.34 57.19 57.68 58.25 58.85 58.91 58.43 58.75 58.85 58.75 58.59 58.56 58.46
59.36 59.02 58.49 59.02 58.32 58.08 58.54 58.39 57.31 58.90 59.08 59.39 58.65 57.41 56.80 55.72 55.39 54.99 55.29 55.13 55.53 56.01 55.84 56.07 57.92 58.72 58.69 58.87 58.95 58.94 58.81 58.06
59.38 59.42 58.46 59.26 58.47 58.04 57.89 58.25 57.38 58.11 59.14 58.90 58.87 57.97 57.23 57.06 56.71 56.32 56.28 55.42 54.99 55.92 56.43 56.81 58.57 58.76 59.42 59.97 59.43 59.36 59.29 59.21
59.32 60.06 59.07 58.82 58.82 58.34 58.54 58.35 58.13 57.53 58.73 59.21 58.82 58.44 58.03 57.34 57.19 56.81 56.86 56.68 56.80 56.37 56.48 56.80 57.72 58.60 59.38 59.29 59.20 58.68 59.27 58.79
59.28 60.07 59.98 59.49 59.51 59.17 59.32 59.02 58.46 58.18 57.93 58.95 58.82 58.21 57.97 57.76 57.27 56.81 56.87 56.83 57.16 56.83 56.83 56.85 57.04 57.12 59.31 59.10 58.60 58.86 58.52 58.07
59.11 60.00 60.85 60.22 59.95 59.61 59.67 59.31 58.95 58.47 58.66 58.63 58.84 58.29 57.76 57.82 57.82 58.02 58.20 57.14 56.95 56.75 56.69 56.72 57.29 57.82 57.93 58.40 58.20 58.65 58.22 58.07
59.18 59.95 61.06 60.72 59.54 59.41 59.07 59.19 58.93 59.36 59.66 59.09 58.72 58.84 58.65 58.25 58.22 58.52 58.89 58.73 58.37 57.23 57.53 58.41 58.08 57.97 58.83 58.43 58.10 58.29 57.95 57.21
59.25 59.67 60.41 60.91 60.51 59.62 59.31 59.20 59.20 59.91 59.63 59.51 59.07 59.05 58.72 58.67 59.26 58.92 59.54 59.22 59.20 59.11 58.50 58.56 58.88 58.83 58.64 58.40 58.20 57.87 57.78 57.97
58.40 59.18 59.79 60.95 61.34 60.73 59.93 59.29 59.59 59.63 59.87 59.35 58.92 59.23 59.14 58.73 59.47 59.50 59.50 59.76 59.35 59.30 59.49 59.32 58.95 58.85 58.79 58.66 58.50 57.84 57.95 57.97
54.95 57.17 58.80 60.21 61.18 61.43 60.93 60.00 59.68 59.74 58.94 59.16 59.38 59.77 60.27 60.26 59.70 59.71 59.84 59.82 59.25 59.35 58.75 58.59 58.93 58.82 56.99 54.76 57.40 56.74 54.94 44.33
53.02 55.10 57.90 59.51 60.38 61.26 61.44 60.88 59.94 59.42 58.73 58.43 59.76 60.05 60.09 59.81 59.82 59.73 59.55 59.47 59.47 59.55 59.19 57.63 53.39 45.80 39.09 41.16 47.16 44.02 41.45 38.13
52.66 54.84 56.76 59.10 60.61 61.66 61.28 61.45 61.37 59.68 58.95 59.16 59.41 59.93 59.56 59.41 59.77 59.56 59.06 58.65 57.78 53.65 45.70 42.50 39.48 38.16 37.49 37.54 36.98 36.77 35.58 34.61
55.10 55.99 56.17 57.07 58.38 61.32 61.99 62.42 61.97 60.75 59.70 59.65 59.60 59.24 58.87 59.02 58.74 57.99 51.83 47.05 43.23 39.86 37.69 36.74 35.55 35.28 35.46 34.95 34.07 32.84 31.62 31.25

GFSFLT1_sfc_wetblb_099.txt.gz
Wetbulb
58.86 57.80 58.38 58.03 57.44 58.38 59.17 58.26 58.34 60.10 59.38 59.38 59.13 60.28 61.28 60.83 62.06 61.89 61.50 61.31 61.96 61.23 60.09 59.88 59.59 58.46 58.17 57.32 54.78 53.80 53.56 53.48
57.95 57.68 57.42 56.59 56.90 58.72 57.81 58.35 59.18 58.31 58.35 58.25 58.39 59.57 60.96 60.57 60.88 61.55 61.10 60.33 59.19 59.75 60.01 59.14 58.36 58.76 58.36 57.10 53.95 53.84 52.56 52.93
56.75 56.25 56.26 55.53 57.41 58.18 58.42 58.87 58.31 58.90 58.20 58.28 59.19 60.25 61.02 60.56 60.97 61.10 60.67 59.11 57.86 58.27 58.55 57.09 57.62 56.73 56.19 54.38 54.22 52.70 52.16 51.70
55.75 55.72 55.23 55.37 57.37 57.93 57.87 58.17 57.81 58.96 58.35 58.48 58.35 58.69 58.91 58.89 59.87 59.65 58.62 58.67 57.56 57.12 57.68 57.61 56.77 56.21 55.03 54.66 54.45 53.28 51.71 52.26
56.15 55.51 54.72 54.99 56.73 58.27 58.70 58.53 58.46 58.72 57.10 57.55 57.06 56.44 55.83 57.44 58.18 59.16 57.82 58.07 57.59 57.25 57.85 57.45 56.90 56.73 56.25 55.28 55.45 54.26 53.60 51.47
55.58 55.43 55.49 55.53 56.56 57.21 58.24 58.86 58.25 58.62 57.96 56.97 57.03 56.30 56.60 57.18 56.66 56.58 56.82 57.31 58.04 58.14 58.41 57.67 57.07 57.08 57.12 56.95 56.46 56.47 55.80 53.51
56.40 56.11 56.15 55.14 56.35 57.11 58.21 58.34 57.67 58.27 58.28 57.77 57.03 55.52 55.05 54.33 55.27 55.29 55.43 56.26 56.87 57.28 57.73 57.69 57.50 57.36 57.64 58.18 57.72 57.18 56.67 56.35
55.50 54.99 55.04 55.18 55.90 56.91 57.72 57.49 57.68 57.89 58.19 57.07 56.31 55.03 54.85 54.03 54.38 54.80 54.50 54.54 55.75 56.22 56.13 56.79 57.09 57.86 58.22 58.42 57.98 57.39 56.79 55.51
55.68 55.55 55.32 55.65 55.94 55.92 57.17 56.90 57.31 58.06 58.20 57.45 57.10 55.93 54.79 54.70 54.96 54.59 54.29 54.53 55.20 56.40 56.07 56.63 57.50 58.28 57.86 57.97 57.66 57.63 57.56 57.15
55.35 55.57 55.99 55.69 55.80 56.00 55.96 55.97 56.84 57.90 58.28 58.15 57.31 56.63 55.29 54.77 54.61 54.35 54.44 54.95 55.71 56.33 55.96 55.79 55.99 57.55 57.94 58.09 57.68 57.55 57.23 56.62
55.76 55.20 56.29 56.33 56.31 56.01 55.76 56.50 56.44 57.28 58.15 58.42 57.84 56.88 56.42 55.56 55.25 54.62 55.47 54.88 55.31 55.52 55.53 55.48 56.06 56.87 57.57 57.49 57.41 57.80 57.35 56.78
56.07 55.86 56.38 56.82 56.65 56.33 56.12 56.15 56.04 55.72 57.07 58.41 58.12 57.20 56.37 56.63 55.56 55.58 56.30 56.05 55.63 55.26 55.58 55.60 55.41 55.58 55.36 56.42 56.75 56.86 56.14 56.12
56.46 56.77 56.36 56.59 56.33 56.47 56.24 56.17 56.33 56.40 56.34 57.43 57.81 57.28 56.37 55.75 55.80 55.71 56.51 56.10 55.91 55.67 55.34 55.20 55.01 54.82 54.75 54.56 54.50 56.51 55.82 55.45
55.40 56.98 56.37 56.54 56.29 56.67 56.84 57.05 56.54 56.89 56.89 56.64 57.01 57.19 55.90 55.58 55.69 56.14 56.39 56.22 55.51 55.59 55.66 54.88 54.95 55.14 55.06 55.26 56.23 56.26 55.79 56.31
52.87 56.49 57.18 56.68 56.89 57.06 57.31 57.29 57.18 57.30 57.21 57.01 56.52 57.22 56.79 55.93 56.27 56.60 56.77 57.36 56.57 55.51 55.43 55.35 55.94 56.00 56.08 56.23 56.83 56.34 55.82 53.37
51.20 51.04 56.64 58.16 56.71 56.94 57.49 57.30 57.56 57.09 57.28 57.17 56.53 56.79 57.61 57.36 56.80 57.27 56.86 57.72 58.12 57.96 57.40 57.02 56.48 57.05 56.77 56.20 56.14 53.12 46.34 39.67
53.09 53.09 53.33 54.57 58.14 57.23 57.33 57.24 57.26 57.80 56.98 56.86 57.60 57.32 57.57 57.04 56.73 56.86 56.69 56.78 57.72 57.32 57.25 57.21 53.52 45.16 39.24 43.07 46.36 43.09 40.37 37.27
51.71 51.75 52.30 53.11 54.11 58.89 57.67 57.55 57.87 57.38 56.86 57.34 57.68 57.81 57.56 57.62 57.55 57.03 56.69 55.41 55.72 46.86 43.27 41.77 39.02 38.22 38.00 38.45 38.04 37.41 35.40 34.21
50.74 50.81 51.24 52.65 53.87 54.19 58.29 58.86 57.95 57.10 56.74 56.79 57.25 58.00 57.64 57.85 57.43 57.27 53.93 46.66 43.15 39.87 37.69 36.81 35.47 34.97 35.46 35.32 34.38 33.25 32.11 31.69

GFSFLT1_sfc_wetblb_102.txt.gz
Wetbulb
57.44 57.41 57.74 57.33 57.36 57.20 56.96 56.88 57.66 59.72 59.90 58.98 59.79 61.26 60.45 62.01 62.52 61.56 63.79 61.30 58.86 56.40 56.32 55.21 55.18 54.42 55.96 55.75 53.61 52.56 52.47 52.55
56.24 57.17 57.23 56.46 56.34 56.18 56.44 56.30 58.10 58.96 57.92 57.76 57.50 59.29 59.81 60.38 61.92 62.49 62.72 61.16 58.92 56.71 57.59 56.21 56.81 55.44 56.50 55.06 53.50 52.68 51.06 51.83
55.86 56.01 55.88 56.10 55.98 55.46 55.84 56.82 58.73 58.46 58.01 57.48 57.20 58.80 60.37 60.09 60.94 61.76 61.66 61.27 59.91 57.99 58.68 57.02 58.48 56.97 56.07 54.59 53.39 51.15 50.88 51.67
54.94 54.99 54.74 54.91 55.06 55.30 56.54 56.66 57.95 57.93 58.28 58.50 58.63 58.97 60.45 59.27 59.69 59.07 59.71 59.36 59.95 59.37 59.10 58.47 58.27 57.81 56.36 55.21 54.28 52.97 52.50 51.00
55.11 54.77 53.94 54.56 54.80 55.84 56.34 56.44 56.34 57.18 58.28 58.02 57.82 58.00 57.94 58.81 59.74 59.16 57.48 57.84 58.10 58.65 57.85 58.22 57.56 56.97 55.71 55.32 54.99 52.97 52.42 51.20
54.30 54.36 54.42 54.98 55.68 56.18 55.90 56.50 56.72 56.91 57.55 57.81 57.45 57.38 58.22 58.99 59.34 57.76 56.54 56.83 57.43 58.85 58.25 57.23 56.78 56.65 56.16 55.09 54.31 53.56 52.75 52.18
55.03 54.88 54.57 54.40 55.10 56.08 56.32 56.06 56.68 57.04 56.86 57.46 56.95 56.34 56.26 56.46 57.40 56.94 56.28 56.43 56.92 57.94 58.39 58.03 57.21 56.93 56.37 57.00 56.75 55.25 54.62 53.44
53.71 53.47 53.53 53.99 54.07 55.20 56.63 56.22 56.67 57.42 56.78 56.93 56.46 56.25 56.29 56.00 56.45 56.12 55.88 55.70 55.90 56.77 56.93 57.03 56.84 57.03 57.38 57.48 57.39 56.58 56.06 55.24
53.90 53.93 53.84 54.10 54.26 55.10 56.23 56.42 56.86 57.48 57.51 55.54 56.24 56.43 55.98 56.26 56.55 56.16 56.05 55.86 56.04 56.63 56.49 56.22 56.42 56.98 57.37 57.68 57.53 57.05 56.75 55.82
53.95 54.42 54.30 54.49 54.69 55.07 55.68 56.33 57.58 57.50 57.74 57.01 55.93 55.75 54.96 55.46 56.11 56.24 56.10 56.44 56.31 56.02 56.05 55.65 55.84 56.23 57.01 57.35 56.97 56.63 56.61 56.32
54.71 54.72 54.78 55.35 55.47 55.52 55.75 56.14 57.36 57.80 58.23 57.52 56.56 55.71 54.63 54.53 55.49 54.82 55.08 55.40 56.15 55.86 55.48 55.46 55.51 56.06 56.57 56.97 56.59 56.87 56.45 56.59
54.62 55.19 55.32 55.55 55.77 55.27 54.94 55.26 55.67 57.14 58.08 57.90 57.09 56.08 55.30 54.20 53.88 53.64 54.15 54.66 55.27 55.71 55.25 54.95 54.58 54.89 56.08 56.33 56.11 56.47 56.15 55.93
55.13 55.47 55.52 55.20 54.87 55.19 54.92 55.07 55.08 55.85 57.54 58.26 57.43 56.72 56.20 54.95 53.91 53.59 54.28 53.43 53.93 54.91 55.66 54.93 54.54 54.18 54.57 55.50 55.70 56.16 55.65 55.07
52.24 54.21 55.44 55.21 54.87 55.05 55.13 55.41 55.11 55.56 56.15 57.57 57.55 57.09 56.12 55.60 54.49 54.29 54.88 55.02 54.42 54.01 54.27 54.58 54.85 54.87 54.23 53.94 54.73 54.30 54.63 55.24
51.11 53.36 54.40 55.32 55.95 55.62 55.46 55.66 55.81 55.73 55.60 55.62 56.70 56.81 56.12 56.25 55.42 54.76 54.64 55.21 54.51 54.34 54.29 54.11 54.23 54.14 54.19 54.08 53.77 53.48 53.78 53.35
50.84 51.34 52.72 53.27 55.86 56.08 56.26 56.11 56.35 56.17 55.53 54.98 55.35 56.46 56.86 56.35 55.68 55.19 55.12 55.13 54.99 54.59 54.55 54.43 54.33 54.11 53.87 53.55 53.63 53.14 51.39 41.11
50.03 50.48 51.12 51.99 53.29 55.60 56.52 56.56 56.55 56.55 55.89 55.27 55.71 55.93 56.51 56.13 55.54 55.18 55.12 55.09 55.44 54.99 54.47 53.97 53.51 52.25 41.29 43.28 49.77 46.35 42.21 37.99
49.28 49.30 50.45 51.59 51.76 52.83 52.96 56.65 56.91 56.40 55.96 56.45 56.32 56.14 56.01 56.00 55.70 55.25 55.00 54.97 55.49 56.08 53.59 49.42 41.54 39.90 39.21 40.38 39.31 39.41 36.89 35.32
48.27 48.61 50.00 49.67 48.95 49.34 51.47 56.11 57.06 56.63 56.09 56.34 56.81 56.36 55.71 56.05 55.81 55.40 55.03 51.69 47.38 42.77 40.03 38.67 36.39 35.92 36.81 36.67 35.79 34.59 33.49 33.19

GFSFLT1_sfc_wetblb_105.txt.gz
Wetbulb
57.03 56.39 58.38 59.10 58.76 58.48 57.24 56.34 56.50 57.64 59.11 59.13 60.54 60.72 61.14 62.10 61.92 61.45 60.59 61.88 60.72 59.73 56.78 54.31 53.47 53.23 53.24 52.29 52.31 51.44 52.36 53.15
55.75 56.48 56.62 56.34 56.14 55.90 55.84 55.75 56.00 57.50 58.65 57.97 57.85 59.11 59.59 60.58 62.06 61.23 61.55 60.17 59.35 57.35 54.68 53.62 52.21 52.85 53.81 52.79 51.97 51.63 50.43 52.36
55.40 55.28 55.32 55.58 55.46 55.70 55.33 55.56 56.76 57.18 57.56 56.56 58.06 58.97 60.14 59.55 60.90 61.47 60.75 59.11 57.33 56.42 54.07 53.13 52.16 53.88 54.18 53.20 52.20 50.35 50.09 51.95
54.72 55.20 54.96 54.98 54.91 54.73 55.44 56.52 56.98 56.94 58.19 57.80 57.90 58.05 59.61 59.15 59.48 61.28 59.74 58.27 56.96 56.63 54.65 53.98 53.68 55.65 54.54 53.40 53.02 50.96 51.10 49.41
55.15 55.24 53.85 54.63 54.78 54.70 55.52 57.21 55.72 56.14 56.84 57.02 57.15 56.58 57.48 58.74 59.01 59.89 60.35 58.77 57.94 58.34 55.73 55.74 55.61 56.82 55.89 54.60 54.47 52.53 52.41 50.60
54.71 54.96 54.77 54.47 54.42 55.20 55.92 56.02 54.65 55.38 57.45 57.45 56.40 57.94 58.77 59.13 58.02 57.52 58.94 59.40 58.72 59.03 58.39 57.81 57.01 57.16 56.54 55.52 53.88 52.61 53.66 52.26
54.94 55.14 54.40 54.03 54.52 54.55 55.13 56.30 56.22 55.70 56.28 57.69 57.52 57.36 57.66 58.16 57.44 55.86 57.26 58.28 58.13 58.28 58.25 57.82 56.74 56.33 55.40 55.06 54.28 53.67 53.60 52.91
53.96 53.02 53.20 54.24 54.33 54.34 55.08 55.52 54.99 55.78 56.35 57.21 57.01 57.23 57.63 57.87 57.68 56.32 55.60 56.62 57.52 57.59 57.95 57.31 56.72 56.63 56.84 56.74 56.20 55.66 54.18 53.05
53.81 53.34 53.69 53.79 54.12 54.52 55.48 54.93 54.87 55.84 54.97 56.57 56.83 56.76 56.99 57.62 57.93 57.22 56.41 56.80 57.59 58.17 58.29 57.78 57.63 57.07 56.87 57.26 56.70 56.48 56.18 55.15
53.32 53.40 53.57 53.64 53.87 54.36 55.74 55.13 55.36 56.02 55.42 55.72 55.82 56.23 56.39 56.63 57.13 57.27 56.87 56.92 57.04 57.72 58.15 57.77 57.26 57.47 57.57 57.27 56.60 56.32 56.32 55.80
53.42 52.96 53.49 53.96 54.18 54.57 55.42 55.78 55.50 56.22 56.18 55.36 55.15 55.29 56.22 56.53 56.58 56.13 56.39 56.60 56.64 56.32 56.18 56.50 56.64 57.00 57.16 57.00 56.40 56.66 56.34 56.28
51.77 53.82 53.95 54.27 54.03 53.99 54.66 55.26 55.60 55.88 56.44 55.95 55.13 55.43 55.34 54.69 55.73 55.97 55.54 56.04 56.08 55.76 55.56 55.23 55.52 55.78 56.36 56.30 56.06 56.16 55.58 55.74
53.03 54.20 54.38 54.66 55.21 54.42 53.31 54.41 55.64 56.22 56.93 56.37 55.40 55.83 55.12 53.85 54.42 55.48 55.57 55.38 55.72 55.46 55.38 55.13 54.59 54.63 54.49 54.43 54.29 54.96 55.40 55.03
51.67 53.95 54.06 54.59 55.07 55.34 55.13 53.80 53.79 55.27 56.57 56.42 55.78 54.99 54.83 54.28 53.31 52.68 54.30 54.94 55.28 55.66 55.34 54.77 54.35 54.30 54.61 55.00 54.84 55.01 54.48 54.97
49.20 51.85 52.84 55.30 55.90 55.15 55.23 55.19 54.44 54.07 54.93 55.56 55.62 55.38 54.85 54.69 54.07 52.81 53.13 53.44 53.40 53.44 54.70 54.51 54.24 54.23 54.13 54.18 54.07 52.84 53.02 54.06
48.86 48.73 51.72 52.80 53.58 56.09 55.85 55.61 55.59 54.62 54.18 54.24 54.75 55.37 55.38 55.65 54.30 53.31 53.40 53.99 53.38 53.01 52.95 52.94 52.94 52.72 52.88 51.87 51.84 50.77 50.30 43.34
48.90 48.90 50.24 50.73 50.71 51.59 52.74 56.14 55.95 56.08 54.95 54.16 54.75 55.73 55.31 55.03 54.95 54.16 53.25 53.45 53.59 53.44 52.89 52.74 51.88 51.95 45.72 44.44 48.50 49.38 45.74 41.05
47.63 47.86 48.74 48.29 48.06 49.22 49.54 51.16 56.04 56.18 55.65 55.83 55.31 55.02 55.54 55.24 55.53 55.16 54.20 52.81 53.09 52.21 51.89 51.35 49.75 45.96 40.56 42.38 41.53 43.16 40.63 38.16
46.28 47.09 48.22 47.11 46.59 46.66 47.80 49.27 52.13 56.50 55.93 56.03 56.10 55.53 55.20 55.82 55.01 54.56 54.36 53.95 52.50 49.93 44.94 42.27 39.35 38.41 38.70 39.51 37.92 37.14 35.18 34.43

GFSFLT1_sfc_wetblb_108.txt.gz
Wetbulb
47.66 52.66 56.34 58.17 58.71 58.95 58.85 58.40 57.14 56.88 57.88 60.19 61.50 61.44 61.03 61.09 61.07 61.16 61.40 60.44 62.03 62.07 61.40 58.65 58.01 56.63 54.72 54.56 51.89 51.96 53.54 53.65
53.30 54.28 55.83 57.00 57.46 57.92 57.62 57.40 56.03 58.40 58.78 58.70 59.47 59.57 60.15 60.69 61.23 61.44 60.86 60.65 61.20 61.58 59.39 56.68 56.77 55.49 53.71 53.22 52.08 52.18 50.63 53.20
53.86 53.73 55.03 56.92 57.81 56.96 56.66 57.24 56.74 58.61 58.68 58.63 58.83 58.66 59.93 60.30 61.14 61.21 60.54 60.85 60.76 59.21 56.68 55.86 55.04 54.28 52.58 52.51 52.57 50.36 50.01 53.34
52.22 53.79 54.33 55.77 56.70 56.28 56.52 56.26 57.38 57.47 56.26 58.05 56.94 58.58 59.19 59.07 59.41 60.33 60.69 59.73 58.81 56.97 56.26 54.43 53.45 53.87 52.10 52.45 52.70 51.76 51.43 50.41
50.70 53.85 53.59 55.48 56.19 55.92 54.95 56.29 56.62 55.99 56.14 56.17 55.23 56.34 57.06 58.44 58.84 60.53 60.03 58.64 57.39 55.48 54.77 52.86 53.25 54.02 52.72 52.80 53.36 51.47 53.25 50.06
49.58 53.57 54.71 55.89 55.50 54.95 56.10 56.91 55.82 54.65 54.93 56.73 56.19 55.98 57.83 58.90 57.40 58.95 57.48 57.14 56.90 55.02 54.26 53.21 54.20 54.70 53.98 53.32 52.49 52.21 53.61 51.53
49.88 53.50 53.99 54.99 54.74 55.56 56.07 55.40 55.54 54.03 54.88 57.07 55.92 55.40 57.86 57.62 56.78 56.65 56.66 56.76 56.93 55.12 55.68 55.04 56.13 56.05 54.83 54.11 53.92 53.50 53.75 53.54
50.26 52.37 52.73 54.19 54.28 54.82 54.75 55.80 55.42 55.32 54.87 57.17 56.90 56.54 58.30 57.56 56.50 56.48 57.16 56.66 56.82 55.95 56.20 56.36 56.09 55.84 55.43 54.84 53.89 53.59 53.01 52.76
50.39 52.29 52.39 53.92 54.24 54.02 55.10 55.44 55.42 55.68 56.32 56.77 57.05 57.57 58.27 58.33 57.34 56.61 57.11 57.55 57.41 56.97 56.05 56.18 56.61 56.51 56.21 56.01 55.36 55.18 54.47 53.68
51.03 52.02 53.05 54.18 54.12 53.79 54.86 54.70 55.19 55.24 55.36 56.67 56.59 56.67 57.19 57.69 57.88 57.27 57.49 58.25 58.30 57.67 56.73 55.68 55.64 56.29 56.41 56.17 55.98 55.87 55.56 55.30
51.58 52.92 52.37 54.14 54.15 55.16 55.32 54.89 54.67 54.97 55.05 55.43 56.09 56.27 56.35 57.15 57.33 56.96 56.75 57.29 58.07 57.97 57.59 57.17 56.49 56.27 56.72 56.43 55.88 55.98 55.82 55.45
52.49 53.14 53.48 53.92 54.43 54.92 55.10 54.71 54.75 55.14 55.40 54.36 53.08 53.40 56.39 56.39 56.39 56.47 56.57 56.68 56.92 57.81 57.64 57.35 57.13 56.89 56.74 56.35 56.07 55.84 55.16 55.30
51.71 53.98 53.88 53.70 53.33 54.59 55.06 55.30 55.84 55.71 56.19 55.04 53.55 53.60 54.20 53.70 55.70 55.82 56.33 56.10 56.41 56.60 56.76 57.23 56.85 56.97 57.25 56.73 56.00 56.00 55.56 55.14
49.20 52.20 54.30 54.82 54.29 54.15 54.28 55.12 55.50 56.31 56.88 55.54 53.49 53.17 53.52 53.76 54.75 55.24 55.62 55.88 55.58 55.42 55.46 55.34 56.28 56.51 56.40 56.45 56.31 55.80 55.74 55.54
48.06 49.48 51.62 52.78 55.54 55.40 54.39 53.67 54.24 54.59 56.02 56.29 55.20 53.08 53.77 53.86 53.64 53.74 55.01 55.66 55.16 54.99 55.08 55.10 54.86 54.72 54.97 55.10 55.06 54.51 54.63 54.85
48.14 48.40 48.29 49.39 50.63 53.49 55.48 54.53 54.25 54.18 53.95 54.58 55.46 55.48 55.10 54.77 53.94 53.02 53.26 54.12 54.99 55.26 54.85 54.63 54.63 54.12 53.92 54.08 54.14 53.58 52.43 47.39
47.90 48.62 47.47 47.44 47.36 48.45 49.77 51.63 54.74 54.57 53.61 53.60 54.53 55.22 55.00 55.05 54.35 53.32 53.04 52.94 52.63 52.58 53.54 53.92 52.63 51.90 45.15 45.27 50.31 52.18 50.06 44.30
46.17 46.91 47.53 45.61 45.30 45.94 46.65 48.52 50.82 54.45 54.33 54.14 54.12 54.85 55.04 54.31 54.37 53.72 52.99 52.95 53.19 52.14 51.49 50.52 48.41 48.03 41.73 43.31 43.12 48.26 46.13 41.74
44.21 44.26 45.30 43.30 42.95 43.08 44.68 46.85 48.00 49.06 54.69 55.40 54.91 54.45 54.41 54.78 54.29 54.11 53.29 53.00 52.52 51.96 50.52 48.86 45.76 42.90 39.74 40.46 38.90 39.41 37.36 36.48

GFSFLT1_sfc_wetblb_111.txt.gz
Wetbulb
54.03 56.63 57.25 58.07 62.20 63.08 63.63 63.98 64.19 62.74 62.88 63.07 63.00 63.51 62.70 63.58 62.93 62.26 61.84 61.81 61.91 62.11 62.79 62.66 61.36 59.75 59.51 59.58 58.71 59.93 59.72 59.55
54.76 59.02 59.44 60.36 61.68 61.97 62.69 62.81 62.72 61.57 61.23 60.46 60.25 59.62 61.42 61.76 62.09 62.12 62.01 61.48 61.75 61.84 61.89 60.15 59.79 58.80 58.64 59.88 58.56 58.13 57.60 59.66
52.92 57.74 57.87 59.09 59.96 61.29 61.18 62.03 61.16 61.50 61.11 60.73 62.52 61.95 61.56 62.13 62.54 62.61 62.89 61.59 61.40 61.67 60.95 59.27 58.36 57.20 57.13 57.92 58.75 57.50 57.32 58.76
52.76 54.36 57.71 57.88 59.18 58.74 59.43 60.47 60.44 61.37 62.03 61.20 59.95 61.24 61.00 60.76 61.42 61.95 61.74 61.35 61.08 61.05 60.68 59.81 58.47 56.83 55.26 56.04 58.90 58.24 55.71 57.91
52.53 52.59 56.85 57.80 58.59 58.48 59.10 60.05 60.06 59.77 60.02 59.51 58.42 58.84 58.43 60.23 60.76 61.86 60.81 60.85 60.77 59.49 58.56 59.12 58.34 56.94 55.18 55.88 58.80 59.34 58.30 56.09
51.90 52.93 56.10 58.43 59.24 57.36 58.66 60.57 59.74 57.89 59.00 58.98 58.08 59.14 60.20 60.32 60.36 60.31 60.56 60.13 58.92 57.79 57.25 56.83 56.87 56.57 56.44 55.37 57.27 58.89 59.10 57.67
55.89 55.00 56.82 57.97 59.22 56.57 59.10 59.86 57.50 57.40 59.70 59.32 59.13 58.30 58.43 58.86 58.93 58.88 58.64 57.92 56.46 56.42 55.08 55.03 55.69 55.79 55.91 56.52 57.03 59.10 58.68 58.47
54.85 55.50 56.04 56.86 55.61 55.67 57.34 57.91 56.13 57.54 59.63 60.10 59.61 58.37 57.86 59.11 58.68 58.12 56.10 55.95 54.55 54.24 54.21 54.97 55.89 56.35 56.16 56.01 56.88 57.82 58.56 58.19
54.96 55.32 56.19 55.86 54.76 55.27 56.34 55.85 56.07 57.00 58.80 59.32 59.61 59.54 58.88 60.02 58.65 58.69 56.69 56.54 54.92 55.44 54.83 56.41 57.20 56.78 55.78 55.90 55.80 56.76 58.22 57.06
54.91 55.52 55.97 56.18 55.41 54.92 55.63 55.72 56.42 56.12 57.77 58.31 58.21 58.73 59.15 58.90 58.47 58.75 58.41 58.02 56.28 56.16 56.38 56.91 57.10 56.61 56.46 56.33 55.76 56.07 55.84 56.03
55.00 55.26 55.68 55.93 55.39 55.21 56.08 56.53 56.04 56.58 56.72 57.37 57.55 57.64 58.50 59.02 58.40 57.73 58.38 58.29 56.57 55.70 56.06 56.29 56.68 56.47 56.90 57.01 56.88 56.92 56.65 56.98
53.15 54.81 54.86 54.88 55.08 55.20 55.10 55.45 55.53 55.98 55.91 56.60 56.72 56.84 57.90 57.87 57.70 57.55 58.06 58.23 57.95 56.34 55.34 54.81 54.44 54.71 56.02 56.25 56.11 56.51 56.20 57.13
52.15 51.99 54.69 54.37 54.63 54.59 54.51 55.38 55.87 56.13 56.12 56.27 56.58 56.73 57.11 57.77 56.87 57.13 57.53 57.29 58.18 57.88 56.83 55.74 54.46 53.77 54.42 55.55 56.16 55.98 55.43 55.05
50.15 49.78 50.49 51.20 54.67 54.73 55.32 55.96 55.99 56.31 56.67 57.40 55.97 55.97 56.18 56.54 57.25 56.83 56.93 56.71 56.80 56.88 57.58 56.82 55.72 55.58 55.26 55.32 55.73 55.81 55.38 55.30
50.23 50.27 48.76 48.95 49.98 54.81 55.18 55.99 56.93 57.50 57.81 57.46 56.16 56.18 56.92 55.99 56.50 56.27 56.61 56.87 56.65 56.37 56.54 56.82 56.95 56.69 56.17 55.71 55.59 55.98 55.76 55.79
49.50 48.84 47.70 47.24 46.97 48.06 50.17 53.69 55.99 57.39 57.89 57.24 56.29 57.01 57.22 56.24 55.58 55.93 56.15 56.22 56.17 55.95 55.70 55.74 55.58 56.00 56.54 56.56 56.44 55.96 55.62 53.79
48.01 48.59 46.55 44.93 44.56 44.68 46.87 48.25 49.84 54.26 56.42 56.81 57.00 56.46 56.72 56.53 55.75 55.05 55.32 55.76 55.74 55.50 55.00 54.85 54.44 53.49 45.48 45.11 51.36 53.94 52.14 46.66
44.84 45.26 43.92 43.07 42.25 43.17 44.14 47.36 49.44 50.67 55.02 55.57 56.53 56.54 56.60 56.46 56.32 55.38 54.71 54.73 55.30 54.67 54.54 54.51 53.39 53.60 43.83 44.39 44.39 52.51 49.37 43.82
42.34 43.04 41.02 41.06 41.58 42.12 44.47 46.04 46.26 47.86 47.32 51.63 55.21 56.21 56.40 56.57 56.75 55.53 55.60 55.54 54.42 53.63 52.94 52.83 52.58 51.82 42.15 42.52 41.11 47.20 44.43 41.38

GFSFLT1_sfc_wetblb_114.txt.gz
Wetbulb
57.81 58.65 59.65 62.16 63.15 64.66 66.65 67.60 68.42 67.40 66.67 65.68 65.96 66.01 65.39 64.87 65.11 64.43 65.25 64.58 64.65 64.18 63.29 63.57 64.21 62.89 63.65 62.52 62.36 63.56 63.22 63.03
57.88 58.46 60.58 63.91 64.35 64.36 65.76 66.47 67.68 64.46 63.94 63.37 64.03 64.00 63.63 64.55 65.69 63.72 63.11 63.61 63.15 63.37 62.51 62.80 62.81 61.95 63.74 62.97 63.65 62.71 62.04 62.92
55.64 56.90 60.77 63.49 64.16 64.65 65.15 66.10 67.00 63.63 64.04 65.34 64.80 62.78 62.93 62.99 64.00 63.88 63.88 62.56 62.29 62.50 62.12 62.02 61.47 61.97 61.52 60.86 62.65 62.20 61.69 63.17
54.99 56.74 58.93 62.53 63.57 64.48 64.86 65.85 66.81 65.59 66.84 64.53 65.53 65.02 63.53 63.75 63.63 63.70 63.16 62.77 62.30 61.95 61.86 60.99 60.65 60.65 59.58 59.57 62.07 62.35 60.19 61.96
57.63 57.95 58.24 60.71 63.11 64.63 64.50 65.62 65.39 65.53 66.86 64.89 64.44 62.76 61.32 62.68 63.61 64.09 63.19 64.67 64.06 62.06 61.79 60.42 59.80 59.96 59.40 58.48 59.68 60.45 62.04 59.69
58.96 59.25 59.16 59.99 63.08 63.32 61.89 63.44 63.80 64.91 66.19 65.61 63.90 62.43 62.91 62.71 63.93 63.93 64.27 63.61 62.58 62.37 61.32 60.44 59.58 58.89 58.38 57.87 58.87 59.27 60.54 61.87
59.01 60.07 59.07 60.44 63.42 60.79 60.45 62.18 61.69 62.11 63.44 64.33 63.42 62.21 61.24 61.52 62.11 62.56 62.43 62.27 61.45 60.53 59.70 59.91 59.28 58.25 57.38 57.96 58.33 59.16 62.26 62.35
58.95 59.30 60.17 60.56 61.36 58.74 59.47 61.15 59.98 59.70 61.17 62.00 62.68 62.17 60.19 60.19 59.95 61.64 60.51 59.37 57.23 57.59 57.95 57.83 58.13 57.66 57.04 57.76 58.12 58.83 61.35 61.60
59.02 59.33 60.35 59.57 58.47 58.52 58.66 59.74 58.78 59.29 61.46 61.87 62.23 61.31 61.18 61.15 62.60 61.58 60.02 58.60 57.05 56.33 55.83 56.47 56.81 56.92 56.86 56.71 57.16 57.91 59.62 61.11
58.58 59.26 59.68 59.38 57.43 57.09 57.70 58.30 58.52 59.23 62.05 62.31 61.69 61.03 60.96 60.90 62.64 61.48 58.89 58.88 55.81 54.69 55.37 55.59 56.05 55.81 56.33 56.58 56.51 57.24 59.04 60.15
57.10 57.90 57.85 57.82 57.14 57.49 57.87 57.83 58.38 58.63 60.96 60.55 60.69 60.43 61.74 61.93 62.40 59.63 58.37 58.10 56.50 55.04 55.81 56.19 55.83 55.55 55.73 56.50 57.24 58.70 59.77 60.24
56.15 55.36 56.34 56.79 56.30 56.35 56.69 56.70 57.57 58.39 58.73 59.51 59.69 59.23 60.90 61.54 61.08 60.54 59.01 58.01 56.35 55.61 56.17 56.13 55.55 56.11 56.32 56.19 57.47 57.21 57.68 58.38
55.17 55.16 52.11 51.38 55.00 55.63 55.61 55.99 56.98 57.89 58.42 58.37 57.72 59.26 60.51 60.35 59.40 59.02 59.00 57.35 56.37 56.15 56.07 56.11 56.01 56.67 56.90 57.10 57.61 57.66 57.57 57.29
53.62 53.36 52.21 48.73 49.12 54.31 54.86 55.55 56.40 57.67 57.33 56.50 57.40 58.12 58.87 59.53 59.98 59.68 58.78 58.21 57.28 55.87 55.30 54.64 54.90 55.91 56.02 56.33 56.25 56.14 55.62 56.50
52.89 52.42 50.45 48.38 47.30 47.64 48.92 54.70 57.06 56.99 56.67 56.84 57.37 58.54 60.17 60.41 60.97 59.81 59.02 58.25 57.31 57.05 55.99 54.98 54.70 54.31 54.39 54.94 55.87 56.14 56.09 55.65
51.37 50.48 48.85 46.70 45.81 46.30 46.71 48.70 50.82 56.17 57.01 57.64 57.72 59.10 59.78 59.26 59.59 60.26 59.79 59.09 58.32 57.74 57.46 56.53 55.59 54.92 54.88 54.19 54.25 54.58 55.67 55.18
50.18 49.43 48.52 45.71 43.72 45.01 45.67 46.83 48.75 51.26 53.66 57.50 58.27 57.51 57.64 58.38 59.02 58.58 58.89 59.42 59.47 59.40 58.24 56.23 55.32 55.12 46.60 46.23 51.87 54.43 54.86 54.25
47.54 46.83 45.97 46.24 44.06 43.41 44.98 45.21 46.82 48.30 48.94 55.04 57.35 56.59 56.45 56.79 58.27 57.86 57.70 57.57 58.36 57.91 57.24 56.85 56.69 55.41 43.88 44.78 44.97 55.10 54.06 48.68
46.32 46.02 45.47 45.44 46.18 44.16 44.71 43.62 43.94 43.92 44.55 45.36 46.85 52.03 56.61 57.02 56.82 56.69 57.55 57.69 57.18 56.85 57.00 57.11 56.39 55.53 43.15 43.33 42.79 49.94 46.00 42.53

GFSFLT1_sfc_wetblb_117.txt.gz
Wetbulb
58.66 59.51 60.55 60.86 62.72 63.24 64.60 68.09 70.33 72.14 71.03 70.33 69.79 68.89 67.22 67.93 67.51 67.70 68.22 68.41 67.73 67.32 67.70 67.58 67.43 66.11 64.61 62.00 61.61 61.48 61.07 61.73
58.94 60.12 60.78 60.93 63.42 64.28 64.97 66.26 69.17 70.23 68.76 67.70 65.89 65.26 65.06 65.90 66.31 66.62 67.35 67.39 66.72 67.15 66.32 66.24 64.40 63.12 62.63 62.77 61.92 60.75 59.89 63.57
57.62 59.00 59.92 61.58 61.64 64.64 65.05 66.34 68.15 69.11 66.97 65.95 67.04 67.56 66.60 67.14 66.46 66.19 66.03 65.67 66.11 65.59 65.57 64.20 63.23 62.79 62.36 60.98 61.39 59.38 59.51 63.02
55.30 56.62 58.39 59.85 62.44 64.74 65.17 66.36 67.39 68.30 65.25 66.35 67.47 66.98 65.50 64.09 63.59 64.61 65.45 65.08 64.31 63.66 63.53 63.60 62.83 61.89 61.09 60.81 61.24 59.24 57.79 60.60
54.53 55.66 57.46 59.66 62.40 65.14 65.79 66.36 66.87 67.55 65.90 66.47 66.80 64.70 62.61 64.22 64.61 64.94 64.75 65.66 64.40 63.13 62.61 62.29 62.17 61.92 61.35 60.57 61.72 61.42 60.23 59.03
57.34 58.24 59.10 59.92 62.29 64.76 66.18 66.59 66.86 66.94 66.78 67.20 66.56 66.25 65.23 65.09 64.70 64.82 64.41 64.73 64.88 63.52 62.31 61.63 60.78 61.13 61.13 60.28 60.21 60.78 60.60 61.03
58.71 60.34 61.94 61.13 65.10 65.60 65.51 65.50 66.28 66.53 66.26 67.26 66.52 66.13 65.17 64.08 63.78 63.51 63.54 64.30 65.12 63.65 63.23 61.62 60.48 60.50 60.21 59.74 60.12 60.34 60.42 60.89
59.07 59.95 61.23 60.88 63.06 64.04 61.72 62.75 64.04 64.57 65.25 66.40 66.40 66.00 65.12 64.04 63.75 63.12 63.20 63.31 63.01 63.21 62.65 61.10 60.27 59.84 59.64 59.31 59.25 59.68 59.53 59.48
59.38 60.51 61.51 61.42 62.32 62.75 59.46 60.91 61.77 61.72 63.91 65.16 65.39 65.42 64.48 63.57 63.24 63.12 62.65 63.00 62.67 61.96 61.54 60.27 59.91 59.37 59.22 58.74 58.92 59.30 59.36 59.35
59.65 60.68 61.12 61.16 60.30 58.90 58.61 60.18 60.51 59.96 61.93 63.81 63.61 63.99 63.45 62.55 62.80 63.56 63.46 63.39 61.72 61.68 58.81 58.31 58.89 58.59 58.28 58.30 58.23 58.56 59.03 59.38
58.34 59.03 59.03 58.78 58.06 58.10 58.56 59.54 59.52 59.82 61.85 62.58 62.77 63.04 63.32 63.02 62.54 62.43 62.58 61.42 60.33 57.36 56.05 56.17 56.41 56.93 57.25 57.35 57.49 58.59 58.45 59.08
56.95 55.82 56.03 55.79 57.61 57.50 57.43 57.84 58.39 59.06 60.86 61.72 62.58 62.22 62.50 62.04 62.17 62.39 62.04 60.32 59.12 57.03 55.74 56.01 55.68 55.43 56.15 56.21 56.49 57.53 57.84 58.29
56.00 55.40 54.74 53.21 52.72 55.88 56.37 56.99 57.82 58.98 59.56 60.03 61.08 60.99 61.19 61.67 61.53 61.87 61.69 58.98 58.28 55.87 56.13 56.09 55.28 55.26 55.71 55.72 56.15 57.17 57.24 57.52
55.09 54.51 53.00 51.32 49.51 49.40 50.18 55.90 56.92 57.90 58.94 58.83 59.30 59.52 60.51 60.93 60.62 60.85 59.64 57.66 56.69 56.15 56.31 55.62 55.06 55.10 55.26 55.72 56.13 56.77 57.38 57.94
53.54 52.45 51.33 50.59 48.13 47.94 48.06 49.22 50.88 56.92 57.97 57.92 58.38 58.37 58.99 59.79 61.32 61.06 59.89 57.99 56.47 55.76 55.86 55.77 55.91 55.53 55.56 55.62 56.15 56.19 57.75 58.49
51.70 51.19 50.62 49.72 47.73 46.63 47.42 47.80 48.50 50.56 53.65 56.87 57.66 59.74 59.87 60.33 60.34 60.51 60.43 59.04 57.60 56.36 55.65 54.96 54.77 55.12 55.58 55.55 55.66 55.66 56.71 54.90
50.22 49.87 49.97 49.42 47.67 44.98 45.92 46.18 46.89 47.62 47.72 51.19 58.84 58.96 59.22 59.76 60.01 60.50 59.76 59.39 58.89 57.43 55.81 55.34 54.03 53.80 46.52 45.07 51.29 54.67 54.68 53.68
48.99 48.65 48.17 48.45 48.74 46.35 43.83 44.40 45.51 44.62 44.54 45.44 47.25 56.53 57.13 58.00 59.37 59.24 59.12 59.15 59.75 58.79 57.99 56.47 55.02 54.63 44.71 45.07 44.35 53.60 53.15 53.46
47.97 47.73 47.52 47.41 48.28 48.71 46.88 43.32 42.63 42.33 41.54 42.02 42.95 44.54 48.12 54.81 57.11 58.46 58.76 59.07 58.74 57.99 58.46 58.11 56.59 55.66 43.26 43.80 42.90 54.25 53.20 48.62

GFSFLT1_sfc_wetblb_120.txt.gz
Wetbulb
58.05 58.75 58.97 59.12 60.88 62.21 65.34 67.42 69.10 70.33 70.78 69.75 69.33 68.60 68.16 68.70 68.23 67.50 67.93 67.80 67.29 66.40 65.77 65.23 65.12 64.33 63.06 62.18 61.43 61.66 61.00 60.66
58.22 59.61 60.51 60.98 61.75 63.89 63.75 66.45 68.24 69.36 69.04 67.89 67.39 66.56 66.45 66.47 66.65 66.75 66.20 66.79 66.50 65.90 65.23 64.81 64.75 63.87 62.90 62.11 61.55 60.22 59.36 59.93
57.74 58.97 61.03 61.76 61.37 62.86 63.80 63.73 67.74 68.59 69.07 68.49 67.78 66.97 65.13 64.94 65.58 65.55 65.55 66.15 65.91 65.28 64.86 64.08 64.08 63.60 62.58 61.88 61.09 59.83 59.07 59.87
55.77 57.14 58.63 61.09 61.41 63.37 63.27 63.65 65.28 67.69 68.64 67.34 65.95 65.08 65.20 64.49 64.86 64.60 64.73 64.98 65.35 64.85 64.55 63.97 63.42 62.91 61.72 61.49 61.07 59.88 57.47 58.75
55.42 56.09 56.77 58.52 60.57 63.41 64.04 63.97 64.45 66.68 67.39 65.40 64.72 63.54 63.02 63.71 63.50 63.64 63.90 64.35 63.95 63.86 63.62 63.80 62.93 62.90 61.67 61.42 61.43 60.08 58.80 56.95
53.07 54.32 55.78 59.71 60.08 62.96 63.60 64.22 64.64 66.75 65.88 64.97 64.50 64.21 64.25 63.81 63.74 62.46 62.93 63.73 63.58 63.02 63.24 63.06 62.55 62.43 61.85 61.28 61.06 60.01 59.41 57.63
57.37 59.55 61.05 61.16 64.57 64.27 65.05 64.57 64.42 65.86 65.24 65.43 64.59 64.65 63.62 63.08 62.99 62.77 62.48 62.90 63.20 62.78 62.18 61.72 62.09 61.67 61.45 61.16 61.14 60.53 59.39 58.91
58.34 58.95 59.98 61.02 62.87 64.53 64.07 63.85 63.60 65.43 65.52 65.05 65.23 65.05 65.29 63.88 62.52 62.38 62.07 62.44 62.51 62.75 61.91 61.33 60.79 61.03 61.17 61.33 60.77 60.70 60.26 59.00
58.55 59.98 60.83 61.13 62.73 62.82 60.78 60.91 61.53 64.41 64.87 64.87 65.01 64.43 64.53 63.84 63.36 62.45 62.09 62.09 62.13 62.83 62.06 61.67 60.87 60.79 60.70 60.14 60.09 60.29 60.70 59.74
58.64 59.26 59.76 59.14 59.68 60.15 60.04 59.58 60.63 62.15 62.63 63.09 63.44 63.24 62.73 62.60 62.76 62.20 61.80 62.14 62.48 61.38 61.79 61.21 60.75 60.39 60.08 59.87 59.17 59.20 60.02 59.89
57.21 57.06 56.96 57.51 57.90 58.37 58.85 59.00 60.11 60.30 61.00 61.58 62.48 61.92 62.28 62.49 62.19 61.53 62.00 62.11 60.84 60.37 59.32 59.08 59.13 59.42 59.49 59.07 58.64 58.94 59.11 59.22
55.02 55.07 54.63 54.53 55.81 56.30 57.89 57.64 58.20 59.22 59.58 60.75 61.50 61.19 61.61 61.07 61.20 61.99 61.09 60.64 60.51 58.29 56.32 56.67 56.55 56.89 57.71 57.99 57.98 58.32 58.33 58.60
53.93 53.68 53.00 51.35 51.08 51.33 51.32 56.26 57.66 58.79 59.40 59.48 60.15 60.42 60.26 60.03 60.16 61.35 61.30 60.06 58.80 57.59 56.47 55.79 55.57 55.85 56.29 56.45 56.43 57.45 57.79 57.81
52.25 50.97 50.24 49.13 48.65 48.74 49.20 50.28 51.24 55.89 58.27 58.56 58.24 58.32 58.73 59.35 59.95 60.84 59.97 58.77 57.77 56.31 55.71 55.28 54.99 55.13 55.43 55.81 56.33 56.79 57.51 58.00
51.13 50.19 49.46 48.87 48.42 47.87 47.72 48.29 49.51 51.05 52.50 57.62 57.53 57.20 58.32 58.62 60.27 60.11 59.25 58.27 56.49 55.83 55.83 55.65 55.22 55.12 55.37 55.81 56.25 56.79 57.25 57.41
50.23 49.32 48.68 48.16 47.46 47.08 46.58 46.92 47.02 48.24 49.07 50.53 55.22 57.66 58.91 59.03 59.37 59.67 59.34 58.02 56.55 56.25 55.89 55.39 55.22 54.86 55.14 55.31 55.49 55.61 55.95 55.46
48.96 48.81 48.76 48.19 47.42 46.36 45.22 45.03 45.18 46.04 45.69 45.35 46.54 48.94 57.60 59.11 58.91 58.71 58.92 58.14 56.85 55.73 55.22 54.52 54.47 54.17 45.09 45.81 51.41 54.17 54.22 53.25
47.49 47.00 46.54 47.08 47.92 46.55 44.23 43.66 43.89 43.62 43.50 43.43 43.66 44.38 46.89 51.68 57.94 58.65 58.07 57.90 57.60 55.77 55.16 54.52 53.70 53.28 43.46 44.00 45.27 52.79 52.31 51.72
46.10 45.93 45.47 45.81 46.58 46.43 45.93 43.87 41.93 40.88 40.61 40.82 41.53 42.09 42.32 44.97 48.73 56.34 57.56 57.65 57.20 56.61 55.59 55.15 54.29 53.62 43.28 43.46 42.01 51.25 50.58 49.80

GFSFLT1_sfc_wetblb_123.txt.gz
Wetbulb
54.29 53.96 53.87 53.58 53.55 57.61 67.17 67.64 68.05 69.06 68.36 67.18 66.56 65.68 65.12 66.56 65.88 65.76 65.77 66.74 65.76 64.80 63.74 63.25 64.14 63.51 61.34 60.86 60.21 59.68 60.43 60.91
54.68 54.90 54.84 52.27 52.12 55.71 65.32 66.56 67.30 68.36 67.10 66.03 65.75 65.16 65.25 64.43 66.25 66.26 65.06 66.29 65.46 64.52 63.95 63.19 63.73 63.25 62.02 60.69 60.01 59.72 59.37 60.67
53.18 52.68 52.98 53.60 55.03 57.21 61.41 65.30 66.89 67.93 68.17 67.41 66.42 65.81 65.13 64.82 66.62 66.37 66.40 66.22 65.53 64.29 63.58 62.95 63.33 63.01 61.29 60.40 59.97 59.36 57.62 60.34
50.13 52.81 53.28 53.65 54.45 56.54 60.41 63.89 66.72 67.42 67.56 66.67 63.94 63.20 62.66 62.39 63.98 64.18 64.58 65.02 64.91 63.65 63.15 62.86 62.63 63.11 61.87 60.61 60.16 59.36 57.61 58.72
48.69 51.86 51.72 52.85 54.72 57.58 59.08 61.37 65.48 66.65 66.95 66.12 64.43 63.56 61.78 61.93 63.15 64.10 63.97 64.40 64.57 64.05 63.00 62.91 62.09 62.77 62.53 61.64 61.07 59.94 59.32 57.41
47.13 49.80 51.76 52.30 53.68 58.18 59.44 59.64 62.92 65.18 65.91 65.58 63.94 63.11 63.08 63.06 63.66 63.30 63.28 63.33 63.33 63.21 63.12 63.05 62.70 62.87 62.41 61.62 60.82 60.11 59.73 58.31
48.11 51.21 52.86 56.64 55.52 57.21 57.76 58.73 60.57 64.67 64.31 64.31 64.06 63.02 61.68 62.10 62.00 61.48 61.57 62.36 62.39 62.21 62.41 62.58 62.72 62.26 61.81 61.58 61.51 60.45 59.64 58.67
52.66 55.41 56.46 58.89 58.59 57.86 58.52 58.84 61.38 61.77 62.60 62.84 62.96 61.95 61.99 61.58 61.29 60.85 59.99 60.27 61.71 61.52 61.60 61.53 61.40 62.03 61.87 61.38 61.05 60.53 59.66 58.59
55.87 56.20 56.54 57.02 58.27 57.27 57.15 57.52 57.82 61.36 61.62 62.59 62.61 62.28 63.03 62.82 62.75 61.55 61.18 61.05 61.54 62.22 61.45 60.75 60.71 60.92 61.08 61.11 60.89 60.73 60.19 59.50
54.60 54.98 55.08 54.95 55.16 55.43 55.74 56.15 57.15 59.62 61.83 62.66 63.37 62.50 62.45 62.54 62.41 61.91 62.01 61.56 61.50 62.18 61.79 60.96 60.21 60.03 60.48 60.72 60.41 60.09 60.41 59.67
52.46 52.96 53.72 54.21 53.97 55.31 55.77 56.36 57.06 58.24 60.18 61.23 62.10 61.89 61.96 61.60 61.11 60.11 60.62 61.04 60.61 59.71 60.57 60.79 60.41 60.34 60.20 60.00 59.76 60.03 59.85 60.16
51.89 51.80 51.74 52.04 52.47 52.72 53.20 55.41 57.32 57.75 58.07 59.86 60.92 60.86 61.23 60.76 60.20 60.25 60.42 59.99 59.45 58.20 58.12 57.53 58.39 58.67 59.21 59.27 59.18 59.08 58.81 59.15
50.50 49.96 49.41 49.04 49.07 49.86 50.50 51.72 52.47 55.49 58.70 58.72 60.10 60.84 60.41 59.25 59.42 60.41 60.21 59.09 58.75 57.38 56.36 55.87 55.83 56.63 57.31 57.77 58.05 58.31 58.03 58.25
48.42 47.80 47.61 47.51 47.55 47.93 48.28 48.76 50.05 52.47 55.01 58.04 58.06 58.20 58.69 58.75 58.98 60.05 59.46 58.13 56.84 56.60 56.13 55.26 55.28 55.42 55.49 56.08 56.71 57.01 57.55 58.02
47.54 46.61 46.19 46.07 45.69 45.26 46.46 46.65 47.89 49.37 51.11 54.32 55.33 56.80 57.88 58.34 59.20 59.21 58.37 57.56 56.58 55.53 55.59 55.31 55.23 55.05 55.34 55.58 55.89 56.34 57.15 57.61
46.84 46.17 45.54 45.17 44.49 43.80 43.88 44.35 45.33 46.86 47.45 47.41 47.82 50.86 53.63 58.17 58.30 58.78 57.99 56.98 55.38 55.87 55.47 55.10 54.98 54.64 54.79 55.00 55.40 55.72 56.06 55.62
46.09 46.47 46.52 45.47 44.50 42.92 43.11 42.09 42.16 43.75 44.23 44.72 45.51 46.77 49.15 51.57 57.08 58.42 57.80 56.93 54.80 54.92 55.10 54.78 54.18 53.82 47.46 46.37 50.81 54.17 54.35 53.79
43.44 43.04 43.29 44.59 44.19 43.03 41.02 40.77 40.51 40.05 40.80 41.76 42.88 44.01 45.05 45.81 48.85 56.28 57.68 56.63 56.07 54.56 54.84 54.22 53.65 53.27 43.65 44.38 45.28 52.62 51.95 50.73
41.57 41.07 40.61 41.24 42.28 42.20 40.80 39.78 39.33 38.85 38.64 38.78 39.75 40.73 42.11 43.28 44.28 46.10 49.83 56.40 56.20 55.12 54.34 54.14 53.42 52.62 42.02 42.93 42.02 51.28 49.84 48.09

GFSFLT1_sfc_wetblb_126.txt.gz
Wetbulb
53.54 53.80 51.52 51.92 51.08 63.04 66.35 67.17 67.78 68.30 68.04 67.22 66.35 66.41 66.01 66.43 66.61 66.75 66.32 65.75 65.08 64.35 63.13 63.10 63.71 62.73 62.02 60.90 60.14 58.73 59.69 60.33
52.52 53.92 54.31 52.15 51.78 56.86 64.69 65.92 67.12 67.86 66.88 65.53 64.99 64.85 64.95 65.71 65.80 65.96 66.23 65.72 64.85 63.95 62.95 62.41 62.99 62.49 61.37 60.62 58.99 59.09 57.39 59.98
47.96 51.56 52.89 52.92 52.53 50.90 62.51 65.56 66.58 67.72 67.44 66.89 66.32 65.85 64.98 65.65 65.74 65.20 65.80 65.74 65.32 65.04 64.23 62.90 62.59 62.08 60.56 60.52 59.41 57.11 57.69 60.44
46.45 48.27 50.35 51.32 52.99 50.45 58.37 64.77 66.41 67.94 67.64 66.54 64.03 63.02 62.15 63.28 64.98 64.98 65.41 66.30 65.85 65.44 64.45 63.26 63.15 63.10 61.88 60.74 59.60 58.85 57.04 58.97
46.69 47.83 49.55 51.51 52.18 53.74 57.84 64.56 66.19 67.65 67.38 65.88 64.63 64.19 63.10 64.11 64.88 65.19 64.74 65.39 65.27 65.02 64.11 63.55 63.34 63.35 61.93 60.97 60.27 59.74 59.21 57.54
46.04 46.96 48.91 52.25 52.93 56.05 60.91 64.37 66.26 67.05 67.09 66.16 64.84 64.04 64.15 63.17 63.68 62.73 64.13 64.21 64.58 64.19 63.85 63.15 62.43 63.15 62.83 61.75 60.71 60.13 59.73 58.41
46.24 47.01 47.94 52.08 52.87 54.69 57.37 63.26 65.13 66.00 66.61 66.01 65.04 63.60 62.38 61.89 62.30 62.20 62.78 63.07 63.27 63.39 63.37 63.26 62.87 62.80 62.60 61.95 61.26 60.60 60.02 59.63
49.08 50.79 55.23 55.63 55.83 57.09 59.11 60.75 60.86 63.82 65.06 64.97 64.76 63.47 62.60 62.09 61.94 61.73 61.79 61.46 61.72 62.08 62.66 62.28 62.40 62.53 62.34 62.10 61.33 60.93 60.24 59.35
52.91 53.83 54.91 55.47 55.75 55.77 56.86 58.05 60.03 60.95 61.31 62.47 63.07 62.80 62.68 62.24 62.19 61.39 61.12 61.33 61.46 62.03 61.73 62.01 61.95 61.84 61.71 61.75 61.28 61.03 60.61 59.72
52.15 52.77 52.70 53.39 54.19 54.73 55.53 56.80 57.98 59.58 60.31 60.68 60.31 60.84 61.76 61.54 61.25 61.14 61.09 61.40 61.55 61.71 61.47 60.96 60.50 60.89 61.21 61.15 60.84 60.30 60.25 60.05
51.18 51.11 51.38 51.75 52.50 53.28 54.27 55.59 56.41 57.67 60.19 61.44 61.89 60.86 61.26 61.92 61.22 61.11 61.60 61.73 61.69 61.39 60.61 60.24 59.33 59.77 60.23 60.22 60.21 60.28 59.99 60.11
49.65 49.79 50.34 50.20 50.79 50.75 51.21 52.32 53.58 55.85 58.83 59.75 60.84 60.45 60.21 61.10 60.50 61.21 61.49 61.23 61.00 60.96 60.68 60.14 59.78 59.20 59.24 59.40 59.61 59.73 59.37 59.56
48.43 48.33 48.40 47.93 48.11 48.20 48.45 49.80 50.77 53.27 57.39 58.46 58.89 60.43 60.30 59.73 59.74 60.15 60.08 59.86 60.00 59.51 58.71 58.50 58.20 58.24 58.70 58.82 58.59 58.81 58.69 58.47
46.24 46.07 45.68 45.32 45.37 45.96 46.44 46.77 47.59 49.92 53.46 57.13 57.31 57.79 59.61 58.48 59.23 59.77 59.39 58.74 57.91 57.15 56.67 56.11 55.57 55.49 55.85 56.23 56.95 57.39 58.07 58.29
45.07 44.37 44.10 43.82 43.96 43.84 43.90 44.52 45.38 46.94 48.75 50.24 50.65 51.63 56.53 58.49 59.21 59.38 58.38 57.70 56.75 56.03 55.81 54.39 55.29 55.35 55.37 55.29 55.51 55.59 56.09 56.77
44.97 44.37 44.05 43.38 42.76 42.92 41.61 41.56 42.83 44.13 44.42 45.26 46.07 48.48 52.13 55.41 58.35 58.21 58.04 57.26 56.55 56.13 55.09 54.42 54.89 54.71 54.81 54.74 55.00 54.81 55.05 55.49
43.30 44.18 43.86 42.80 41.59 40.68 40.45 39.64 39.58 40.70 41.17 41.23 42.43 44.77 47.23 49.51 50.79 55.95 57.25 56.69 55.73 54.86 53.68 54.38 54.06 53.66 46.86 45.05 50.12 54.24 54.34 53.93
39.17 38.73 39.00 41.76 40.37 39.72 38.02 38.28 39.83 39.36 39.08 39.24 39.95 40.66 42.74 44.29 46.65 49.49 56.39 55.97 55.31 54.56 54.40 54.30 53.62 53.20 43.78 43.96 43.05 53.13 52.31 51.78
37.45 36.91 36.66 39.19 38.83 37.50 37.34 37.28 37.67 37.62 37.35 37.21 37.79 38.14 39.16 40.89 42.48 44.01 45.96 50.50 55.12 54.52 54.02 53.80 53.28 51.99 42.87 42.69 41.42 51.39 50.00 47.64

GFSFLT1_sfc_wetblb_129.txt.gz
Wetbulb
47.95 50.35 50.90 50.24 52.08 61.44 65.23 66.52 67.18 67.40 67.14 66.60 66.65 65.72 65.80 66.31 66.29 66.63 66.25 65.93 64.92 63.74 62.86 62.15 62.84 62.28 61.15 59.70 58.25 57.65 58.05 58.83
45.94 48.64 51.57 50.34 48.51 52.70 61.93 65.04 66.48 67.20 66.87 65.64 65.31 65.10 65.14 65.56 66.42 66.45 66.22 65.66 64.78 63.86 62.97 62.26 62.65 62.05 61.72 60.46 57.47 57.89 56.59 58.99
44.54 46.71 46.20 49.98 49.67 49.95 56.35 63.38 65.85 67.06 66.98 66.67 66.04 65.87 65.76 65.40 66.43 66.65 66.04 65.41 64.61 63.96 62.64 62.09 63.21 61.96 60.24 59.33 57.93 56.18 57.55 60.33
42.85 44.64 46.26 46.37 47.88 48.02 54.45 61.55 64.88 66.82 67.31 66.84 64.49 63.28 63.58 64.60 64.76 65.65 65.84 65.28 64.75 64.85 63.32 63.09 62.98 62.22 60.91 60.15 59.88 59.06 57.50 59.62
43.10 44.53 45.43 46.47 47.27 49.87 51.01 59.51 64.23 66.39 67.21 66.23 64.60 64.34 63.37 64.72 65.38 65.67 65.82 65.91 65.06 65.31 64.40 63.57 63.16 63.10 61.89 61.06 60.91 60.62 59.63 58.02
42.29 44.21 46.48 47.26 48.72 50.48 50.59 56.63 63.60 65.76 66.76 66.24 64.89 64.36 64.55 64.10 65.71 65.31 64.76 65.72 65.73 65.47 64.55 63.65 63.20 63.27 62.90 61.68 60.69 60.36 60.11 59.17
42.47 44.93 46.49 44.70 51.62 51.34 56.26 57.15 63.04 65.70 66.48 65.96 65.13 64.44 63.49 63.02 64.11 64.19 64.27 64.28 64.62 64.17 64.11 63.59 63.64 63.28 62.62 61.57 61.43 60.60 59.71 60.03
40.25 42.34 43.61 51.91 53.96 54.70 56.47 61.45 63.26 65.66 65.89 65.47 65.24 64.75 63.51 62.98 63.31 62.75 63.10 62.90 63.10 63.23 63.51 63.01 62.86 63.08 63.01 62.42 61.60 60.86 60.37 59.63
52.06 52.71 53.23 54.52 54.93 56.23 57.87 60.22 60.85 64.58 65.85 65.16 64.91 63.32 63.28 62.83 62.89 63.12 62.76 62.44 62.66 63.28 63.18 63.25 62.93 62.62 62.64 62.33 61.74 61.26 60.64 60.00
51.42 51.70 52.96 54.10 54.75 55.13 56.69 58.87 60.06 60.82 61.10 60.74 61.46 62.64 62.63 62.22 62.54 62.45 62.34 62.47 62.13 62.23 62.80 62.28 62.29 62.07 62.03 61.71 61.39 60.99 60.71 60.38
50.39 50.50 50.93 50.84 52.14 53.19 53.86 55.73 57.37 59.16 60.41 61.29 61.18 60.83 61.32 61.53 61.57 60.92 60.73 61.06 60.77 61.49 61.28 61.14 61.01 61.19 61.21 61.10 60.85 60.75 60.30 60.25
50.21 49.22 49.05 49.27 50.17 50.55 50.74 51.97 53.34 55.91 58.22 59.56 60.43 60.73 61.36 60.79 61.26 60.67 60.67 60.70 61.41 60.94 60.77 60.41 59.86 59.49 59.55 59.89 59.99 60.19 59.67 59.74
47.10 46.25 45.84 45.64 46.05 46.41 47.39 48.73 49.39 51.29 56.55 56.87 58.29 60.32 59.03 58.89 59.43 60.26 60.84 60.48 61.21 60.79 60.40 59.44 58.82 58.62 58.71 58.75 58.77 58.85 58.68 58.72
44.50 44.06 43.42 42.94 42.96 43.38 43.78 44.65 46.00 47.96 50.34 51.88 52.51 53.62 58.83 58.88 58.71 58.97 59.27 59.65 59.75 59.31 59.29 58.81 58.37 58.03 58.03 57.83 58.13 58.15 58.27 58.69
43.74 42.59 41.85 41.94 42.05 41.12 41.01 41.67 43.17 44.45 45.37 46.30 46.91 49.00 51.38 57.45 58.71 58.81 58.07 58.49 58.05 57.69 57.57 57.11 56.71 56.05 55.93 55.97 55.77 55.44 55.89 56.43
38.79 40.65 39.56 39.28 38.96 39.24 39.70 40.07 40.92 41.90 42.09 42.24 42.63 45.45 48.32 49.97 52.56 57.43 58.11 57.39 57.41 57.33 56.07 55.15 54.95 54.81 53.92 54.36 54.62 54.60 54.66 54.26
37.05 37.98 38.67 37.37 36.85 36.72 37.62 38.54 39.11 40.12 39.69 39.59 40.59 42.10 43.92 45.04 47.56 50.06 56.35 57.11 56.13 54.75 54.40 54.19 52.55 52.39 46.03 44.76 50.51 54.12 53.54 53.08
34.27 35.14 35.35 35.64 35.37 35.67 35.33 36.72 38.14 37.69 37.22 37.52 37.80 38.96 40.53 41.22 43.56 45.47 47.10 50.02 55.52 54.62 54.28 53.50 53.14 51.85 43.68 43.49 42.41 52.39 52.57 52.37
32.53 33.10 34.15 34.19 34.66 34.38 34.79 34.79 36.14 35.88 35.36 35.23 35.66 36.21 37.51 38.72 39.86 40.79 42.73 45.04 48.13 53.99 53.43 53.96 52.85 51.02 42.04 42.59 41.14 50.76 50.79 48.26

GFSFLT1_sfc_wetblb_132.txt.gz
Wetbulb
42.97 44.06 44.21 47.13 48.50 51.67 59.06 65.44 65.62 65.44 65.51 65.00 64.79 64.79 64.71 65.35 65.15 65.06 65.23 65.34 63.71 62.85 62.18 61.80 62.63 61.78 60.76 59.42 58.29 57.55 58.25 59.00
42.93 43.76 44.02 44.07 47.63 49.48 56.02 63.99 65.67 65.91 65.47 64.67 64.08 63.58 63.86 64.67 65.13 65.11 65.27 65.18 64.84 63.18 62.36 61.95 62.84 62.50 61.57 59.73 57.25 56.97 56.51 59.46
42.42 42.51 41.04 43.38 47.15 48.87 49.85 61.98 65.26 65.98 66.39 65.84 65.60 65.01 64.84 64.80 65.38 65.16 65.25 65.29 64.69 64.05 62.67 62.19 62.56 62.30 61.62 59.56 57.93 56.39 56.93 59.71
41.41 42.40 42.45 41.82 43.41 46.75 48.88 52.80 63.98 66.04 66.73 66.41 64.59 66.07 65.36 64.57 64.47 64.74 64.69 65.05 64.74 64.68 63.17 62.56 62.82 62.79 61.30 60.62 58.92 58.25 57.31 59.43
41.47 42.05 42.25 41.96 42.06 45.10 48.61 50.86 57.66 65.14 66.48 65.89 64.96 64.14 63.33 64.45 64.49 65.04 65.20 65.45 64.86 64.84 63.42 62.79 63.10 62.93 61.94 60.90 59.91 59.32 58.85 57.65
40.57 41.41 42.45 43.43 43.73 42.96 47.03 48.66 54.60 61.64 65.84 66.08 65.03 64.27 64.45 64.77 65.13 65.00 64.78 65.35 65.26 64.63 63.47 63.41 63.49 63.08 62.37 60.97 60.02 59.79 59.75 59.33
40.75 42.19 42.81 42.47 41.06 45.71 46.27 47.03 53.36 60.78 65.05 65.78 65.18 64.32 63.88 63.33 64.38 64.18 63.89 64.27 64.99 64.83 64.52 63.90 63.54 63.29 62.63 61.44 60.93 60.29 59.64 59.42
43.16 42.91 41.19 39.58 44.41 46.97 51.02 49.02 52.34 60.32 64.16 65.50 65.19 64.81 64.20 63.61 64.03 63.94 63.33 63.90 64.61 64.52 64.44 63.49 63.26 63.23 62.89 62.22 61.35 60.68 60.42 59.52
50.60 50.92 52.08 51.43 52.39 53.21 55.35 57.57 58.81 61.21 64.34 65.49 65.53 65.06 64.43 64.23 64.28 64.75 64.06 64.20 64.56 64.90 64.28 63.84 63.42 63.42 63.01 62.35 61.82 61.42 60.90 60.29
48.27 48.65 49.70 51.03 52.70 54.77 58.73 60.40 61.09 63.64 64.82 65.02 64.50 63.85 63.77 63.57 63.81 63.59 64.38 64.05 63.92 63.97 63.99 63.33 62.95 62.89 62.75 62.39 61.69 61.04 60.63 60.51
46.00 46.62 46.84 47.93 49.10 50.29 53.04 55.11 56.65 58.80 61.13 63.32 63.35 63.41 62.86 62.98 63.04 62.62 63.13 63.42 62.64 62.71 62.97 62.89 62.38 62.30 62.30 61.86 61.52 61.31 60.54 60.36
43.78 43.86 46.04 45.68 45.43 46.05 47.10 49.47 51.58 54.13 58.09 60.24 60.82 60.82 61.14 60.90 60.86 60.94 61.29 61.48 61.14 61.47 61.99 61.76 61.38 61.04 61.38 61.04 60.68 60.48 60.30 60.15
39.93 40.30 43.17 43.39 42.36 42.74 42.96 44.52 46.44 48.46 51.75 53.91 55.83 58.99 60.43 60.27 60.02 59.66 59.70 59.61 60.17 60.37 60.43 60.39 60.18 60.06 60.12 60.10 59.60 59.72 59.58 59.40
37.96 36.83 37.65 39.51 39.75 40.01 40.69 41.32 42.41 45.20 47.33 48.28 49.99 51.46 53.39 57.89 58.98 59.68 59.60 59.45 59.82 59.82 59.95 59.43 58.95 58.57 58.39 58.69 58.77 58.47 58.91 59.05
34.77 34.50 35.32 35.84 37.58 38.25 38.89 39.61 40.70 41.73 42.68 43.51 44.89 46.50 48.88 51.47 56.87 58.14 58.68 59.26 59.30 59.42 59.57 59.05 58.54 58.07 58.05 57.91 57.83 57.47 57.65 57.73
32.88 33.04 33.55 34.21 34.50 35.68 36.99 38.20 38.99 39.88 39.72 39.69 40.20 42.75 44.65 46.08 48.44 51.91 57.59 57.59 57.92 58.17 57.37 56.87 56.61 56.59 56.27 55.89 56.05 55.87 55.45 54.70
32.12 33.00 33.04 32.98 33.34 33.92 34.57 36.23 36.80 37.78 37.38 37.26 38.57 39.82 41.16 42.26 44.29 46.66 48.84 54.23 55.89 56.25 55.53 55.12 54.48 53.74 46.58 44.04 50.86 54.27 53.78 52.98
30.80 31.27 31.61 32.40 33.19 33.38 32.94 33.73 35.99 35.48 35.24 35.47 36.04 37.42 38.24 39.04 41.10 42.57 44.04 46.03 50.00 55.10 54.80 54.16 52.74 52.64 42.77 42.59 42.77 52.96 52.67 52.51
29.62 29.73 30.26 31.15 32.81 33.65 33.46 33.32 33.15 33.55 33.24 33.31 33.85 34.72 35.67 36.37 37.16 38.53 40.06 42.78 44.95 47.70 53.27 53.56 52.58 51.11 42.05 41.68 40.78 51.28 51.16 50.76

GFSFLT1_sfc_wetblb_138.txt.gz
Wetbulb
53.33 54.68 55.82 56.35 57.60 56.71 55.60 55.18 57.32 61.64 65.78 69.82 69.51 69.19 69.70 69.82 69.52 69.46 69.30 68.58 70.11 69.58 68.72 68.80 68.69 67.66 67.32 66.53 65.44 67.31 66.92 66.17
54.10 55.28 56.00 56.44 58.30 57.27 55.45 54.61 55.72 56.58 59.21 65.76 67.89 68.26 68.58 69.18 68.96 69.02 69.65 68.01 69.76 69.48 68.47 68.33 67.09 66.73 66.50 66.11 65.76 66.30 66.01 66.12
53.09 54.62 54.49 55.66 56.44 58.38 57.73 54.15 54.65 55.09 56.18 64.41 68.07 68.82 69.88 69.16 69.46 69.41 69.58 68.23 68.16 69.39 69.37 68.24 65.66 66.09 66.20 65.74 66.54 65.64 64.97 65.65
51.50 51.84 52.31 53.65 55.14 58.16 58.04 55.66 53.93 54.64 57.04 61.94 66.88 66.84 68.13 68.04 68.95 68.32 69.34 68.25 66.96 68.02 69.18 68.84 66.32 67.03 64.75 64.76 66.82 65.94 63.07 63.36
47.25 46.80 48.44 48.05 51.51 54.94 58.44 57.52 53.94 53.99 55.86 59.10 65.12 64.72 63.54 66.65 67.59 68.59 68.47 68.19 67.26 66.74 68.26 68.89 68.01 67.43 66.75 65.28 67.35 66.73 65.78 61.72
43.23 43.02 44.55 43.65 46.57 50.45 55.19 55.60 54.02 53.93 54.79 58.07 64.77 65.48 65.43 67.38 67.16 67.63 68.52 67.92 66.85 65.98 66.97 67.55 67.20 66.60 68.13 67.12 66.63 67.47 67.03 65.11
41.79 41.12 41.33 40.67 42.17 45.90 50.96 55.22 52.54 53.57 53.94 57.66 65.56 66.78 66.19 65.95 66.92 67.05 67.54 67.46 65.73 65.66 65.83 66.31 66.84 66.46 66.38 65.99 66.49 67.36 67.10 66.54
38.19 38.51 37.04 38.41 38.83 42.45 47.80 55.12 51.36 52.83 53.53 57.29 65.94 67.10 66.81 67.37 66.21 67.16 66.81 65.84 64.52 65.03 65.24 65.27 65.59 66.42 66.44 66.28 65.60 65.67 67.19 66.60
38.15 37.16 36.36 37.09 38.33 39.78 43.52 50.29 51.99 52.28 53.33 57.04 64.92 67.37 67.04 67.41 68.16 68.17 67.89 67.12 65.74 65.83 65.16 65.54 65.90 66.17 66.11 65.89 65.07 65.67 67.79 67.92
37.14 35.96 35.21 36.32 36.81 38.96 41.55 43.75 54.75 53.66 53.85 57.82 63.56 67.14 67.04 67.22 67.96 68.95 68.48 68.73 66.82 66.40 65.65 65.03 65.53 65.89 65.89 65.82 65.20 64.89 67.16 67.42
36.51 35.54 33.86 35.65 36.51 38.36 38.85 41.34 44.75 52.52 60.63 62.21 64.86 66.65 67.64 68.03 68.58 68.42 69.03 69.00 67.82 66.22 65.17 64.92 64.85 65.22 65.60 65.65 65.54 66.15 65.85 65.76
35.99 35.04 33.57 34.87 35.54 35.93 37.25 39.24 41.72 46.67 48.61 54.59 62.30 65.98 67.03 68.05 68.37 68.16 68.05 68.16 67.30 66.32 65.80 65.05 64.43 64.70 64.68 64.11 65.03 66.15 64.55 64.21
35.48 34.57 33.17 33.19 33.82 34.72 35.18 37.10 39.52 43.58 45.26 47.43 49.37 52.96 56.98 60.75 65.47 67.85 67.92 67.41 66.00 65.56 64.81 63.87 63.35 63.54 63.55 63.26 63.61 63.81 63.90 62.54
34.69 33.05 31.84 31.61 33.13 34.30 34.53 35.80 37.24 40.35 43.57 43.40 43.89 49.00 51.11 50.92 54.03 58.67 63.08 63.02 62.96 63.10 62.43 62.18 62.33 62.46 62.20 62.49 63.37 63.47 62.81 62.32
33.37 31.57 31.18 31.59 32.46 33.60 34.49 34.90 36.68 37.74 40.03 41.60 41.82 43.18 46.30 51.18 52.83 52.13 54.89 63.07 63.46 63.69 64.54 62.65 62.81 61.87 61.57 61.88 62.59 63.02 62.95 61.90
32.64 30.63 30.85 31.44 31.63 32.29 34.20 34.42 35.73 36.62 37.68 39.20 38.94 42.11 42.72 47.22 47.07 49.56 51.40 54.12 61.79 63.93 63.38 62.87 62.20 61.69 61.50 60.44 61.08 61.67 61.51 61.30
32.17 31.37 31.16 31.08 31.52 32.58 33.24 33.68 35.15 36.13 34.91 34.71 36.96 37.71 38.63 40.05 42.63 44.78 46.30 48.67 52.83 59.02 60.08 60.43 60.51 59.54 48.17 47.62 55.88 60.74 61.84 60.71
31.73 31.59 31.41 31.60 32.21 33.26 32.77 34.15 35.17 34.77 33.24 34.28 35.06 35.42 36.05 37.04 39.37 40.80 41.93 44.71 47.83 48.82 49.47 55.17 51.02 43.88 39.96 45.09 46.36 59.57 58.75 59.46
31.37 31.71 31.43 31.62 33.24 33.41 33.78 34.63 34.75 34.52 34.19 34.44 34.27 34.50 34.69 36.10 36.57 37.87 39.29 41.37 42.99 42.40 42.58 45.36 44.10 38.76 37.35 39.83 41.28 58.23 58.14 57.84

GFSFLT1_sfc_wetblb_141.txt.gz
Wetbulb
54.19 55.56 57.13 57.91 59.03 59.30 60.27 60.79 62.33 62.95 61.63 61.22 65.57 70.77 71.70 71.77 71.51 72.07 72.12 70.59 72.33 71.99 70.41 70.35 70.02 69.10 68.69 68.28 67.54 68.08 67.17 66.57
55.06 54.53 54.72 54.17 55.37 54.84 57.86 57.49 60.47 62.45 59.06 57.89 58.27 66.49 68.95 70.68 71.71 71.79 72.10 70.12 71.67 71.78 70.64 70.47 69.70 68.78 68.76 69.18 66.86 66.62 66.62 66.63
51.49 51.70 51.22 50.71 50.42 50.14 52.33 53.47 55.87 59.30 61.09 57.97 58.56 59.58 69.02 69.77 71.21 71.28 71.78 70.98 70.94 71.51 70.89 70.00 69.77 68.81 69.04 68.65 67.51 65.84 66.92 65.67
48.23 47.89 47.69 47.52 46.44 48.11 49.03 49.38 51.76 56.29 60.28 59.02 58.37 58.85 64.38 67.89 68.53 69.70 70.97 71.35 70.21 71.40 71.10 70.69 69.63 69.20 68.04 68.10 67.60 66.95 64.95 66.03
46.59 46.56 44.03 44.74 44.02 45.74 44.58 45.58 48.46 53.53 58.61 60.54 57.25 55.99 59.20 65.89 67.53 68.43 70.48 71.04 69.78 70.41 70.75 70.99 69.27 68.64 68.35 67.87 67.97 68.32 66.99 63.99
44.51 43.69 43.27 43.29 42.01 43.38 42.11 42.92 45.36 51.03 56.59 60.23 56.81 56.52 59.79 65.24 67.11 66.17 68.98 70.17 70.13 69.35 70.66 70.60 69.51 68.44 68.87 68.19 67.52 68.33 67.69 65.07
44.11 43.22 43.24 42.12 40.63 41.42 40.60 41.45 42.77 48.29 53.48 59.88 58.56 56.87 60.01 65.61 66.05 65.32 65.54 68.59 69.04 67.50 68.15 70.43 70.70 68.87 68.82 68.34 67.82 68.80 67.82 67.29
42.33 41.23 39.87 39.83 37.86 39.13 38.93 39.19 40.92 46.52 54.85 59.02 57.79 58.00 56.65 65.34 65.75 66.15 62.88 66.18 67.60 66.20 66.01 68.84 69.81 69.29 68.89 69.31 67.94 68.18 68.32 67.25
41.43 40.98 39.46 38.06 36.40 37.15 37.29 37.94 39.55 44.38 53.82 56.25 57.34 58.29 57.09 65.35 65.38 64.94 60.88 60.44 65.07 67.04 65.56 66.68 68.97 69.45 68.59 69.01 68.06 67.86 68.54 68.40
40.82 40.13 38.62 36.77 35.61 36.32 36.46 37.16 38.46 42.04 49.76 56.81 56.58 58.15 58.35 64.82 66.35 67.48 61.82 60.34 60.37 66.43 65.86 65.50 65.73 67.96 68.05 67.60 66.88 66.62 67.93 68.38
40.05 39.35 37.82 36.30 36.20 36.08 37.13 37.37 37.80 40.74 45.80 50.04 58.58 57.96 61.92 66.67 66.27 63.41 64.22 64.80 65.36 66.18 65.84 65.31 65.01 65.09 66.28 65.95 65.25 65.53 65.68 67.82
39.41 39.03 37.30 36.26 36.42 35.09 35.44 36.22 37.26 39.45 42.75 45.41 49.82 56.02 58.49 64.85 65.27 65.22 64.45 65.92 67.04 67.11 66.91 65.22 64.25 64.10 64.84 64.74 63.99 64.18 64.35 66.81
38.79 37.52 35.44 35.46 35.28 33.66 34.20 35.21 36.64 38.08 42.02 42.20 45.40 47.68 52.29 54.79 57.10 63.20 66.83 67.05 68.25 67.49 67.70 65.72 63.72 64.03 64.16 64.23 63.79 64.05 64.62 64.45
37.37 35.53 32.92 33.34 33.73 32.95 33.64 34.48 35.58 37.80 40.22 40.09 42.22 44.09 45.62 49.96 51.62 54.65 58.65 65.88 66.64 67.05 67.24 65.96 63.78 63.65 63.63 63.92 63.79 63.79 65.40 64.49
35.98 34.05 32.71 32.57 32.70 32.74 33.49 34.13 35.35 36.93 38.61 38.06 38.25 42.29 43.18 46.19 48.09 50.69 51.98 55.96 62.33 63.40 63.51 63.94 63.24 62.86 62.98 62.88 63.04 63.29 64.05 64.66
35.18 33.96 32.94 32.38 32.15 32.50 33.48 34.02 35.23 36.47 36.77 36.87 36.86 39.23 42.92 43.41 44.52 46.84 50.32 51.91 55.17 60.23 63.44 61.64 61.72 62.09 62.25 62.09 62.19 62.65 62.62 62.92
34.61 34.73 34.21 32.71 32.58 32.88 34.01 33.88 34.76 36.02 35.61 35.64 36.35 37.16 38.47 40.19 41.00 42.77 45.23 47.59 50.41 50.87 52.13 61.62 61.90 49.34 40.74 46.71 57.49 61.94 61.95 61.43
34.77 35.15 34.67 34.15 33.91 34.33 34.28 34.13 35.31 35.36 34.66 35.01 35.40 36.14 36.13 37.45 39.76 39.58 41.37 42.26 44.53 43.97 45.66 46.29 41.42 39.94 37.67 40.02 42.16 62.75 61.76 61.16
35.66 35.66 35.31 34.56 34.64 34.71 35.42 35.00 34.36 35.14 34.85 34.67 34.50 33.45 35.51 36.58 36.03 36.97 39.26 39.97 40.02 39.87 39.59 41.75 40.71 36.44 36.03 36.61 38.49 53.87 59.43 57.73